                ,  0.301,  0.397,  0.494,  0.590,  0.687,  0.784,  0.880,  0.977,  1.073,  1.170,  1.267,  1.363,  1.460,  1.556,  1.653,  1.749,  1.846,  1.943,  2.039,  2.136,  2.232,  2.329,  2.426,  2.522,  2.619,  2.715,  2.812,  2.909,  3.005,  3.102,  3.198,  3.295,  3.392,  3.488,  3.585,  3.681,  3.778,  3.875,  3.971,  4.068,  4.164,  4.261,  4.357,  4.454,  4.551,  4.647,  4.744,  4.840,  4.937,  5.034,  5.130,  5.227,  5.323,  5.420,  5.517,  5.613,  5.710,  5.806,  5.903,  6.000,  6.096,  6.193,  6.289,  6.386,  6.483,  6.579,  6.676,  6.772,  6.869,  6.965,  7.062,  7.159,  7.255,  7.352,  7.448,  7.545,  7.642,  7.738,  7.835,  7.931
2012/03/24 00:00,  999.0,  999.0,   -8.1,   -2.2,   -5.9,   -8.3,  -10.5,  -12.4,  -12.1,  -12.2,  -12.8,  -12.9,  -13.7,  -12.0,   -7.6,   -6.1,   -3.6,   -1.2,  999.0,  999.0,  999.0,    1.8,   -0.4,    1.4,    5.9,    6.8,  999.0,  999.0,  999.0,   24.9,   22.8,   21.3,   22.7,   23.9,   23.0,   23.2,   23.0,   21.9,   21.9,   24.2,  999.0,  999.0,  999.0,  999.0,  999.0,  -11.8,  999.0,  -10.5,  999.0,  999.0,  999.0,  999.0,   11.4,   10.0,    9.9,   13.7,   12.3,  999.0,  999.0,  999.0,    0.4,    0.3,    0.0,   -0.3,    0.1,   -0.0,    0.1,   -0.0,   -0.4,    0.1,  999.0,   -0.0,  999.0,    0.2,  999.0,  999.0,  999.0,  999.0,  999.0,  999.0
2012/03/24 00:10,  999.0,  999.0,   -5.8,   -0.5,   -3.0,   -4.1,   -6.4,  -10.8,  -12.9,  -12.8,  -13.6,  -14.9,  -13.9,  -13.7,  -11.5,   -4.6,   -1.1,  999.0,  999.0,  999.0,    4.5,  999.0,    4.6,    5.7,  999.0,  999.0,  999.0,  999.0,   21.4,   23.0,   24.9,   25.0,   25.2,   25.1,   24.7,   23.9,   23.5,   23.6,   23.5,   25.2,   29.2,  999.0,  999.0,  999.0,  999.0,  999.0,  -13.1,  999.0,  999.0,  999.0,  999.0,  999.0,  999.0,  999.0,  999.0,   14.1,  999.0,  999.0,  999.0,  999.0,    0.3,    0.3,   -0.1,   -0.3,   -0.2,    0.0,   -0.2,    0.1,    0.1,  999.0,  999.0,  999.0,   -0.2,   -0.2,  999.0,  999.0,  999.0,  999.0,  999.0,  999.0
2012/03/24 00:20,  999.0,  999.0,  999.0,   -2.8,   -5.3,   -6.4,   -9.4,  -11.1,  -12.4,  -11.9,  -13.2,  -13.3,  -13.5,  -11.2,   -7.1,   -2.8,    1.4,    6.2,  999.0,  999.0,  999.0,  999.0,    5.7,  999.0,  999.0,  999.0,   21.6,   23.9,   23.3,   21.7,   22.8,   23.4,   23.9,   23.2,   23.3,   22.6,   22.8,   23.4,   24.1,   25.9,   28.8,   31.5,  999.0,  999.0,  999.0,  999.0,  999.0,  -10.8,  999.0,  999.0,  999.0,  999.0,  999.0,  999.0,  999.0,   12.8,   10.2,  999.0,  999.0,  999.0,  999.0,  999.0,   -0.6,    0.2,    0.3,    0.0,   -0.1,   -0.1,   -0.3,  999.0,  999.0,  999.0,   -0.2,  999.0,  999.0,  999.0,  999.0,  999.0,  999.0,  999.0
2012/03/24 00:30,  999.0,  999.0,  999.0,  999.0,   -4.2,   -5.5,   -9.5,  -11.4,  -13.3,  -12.1,  -13.1,  -13.4,  -13.4,  -12.6,   -7.8,   -4.6,  999.0,  999.0,  999.0,  999.0,  999.0,  999.0,    8.0,  999.0,  999.0,   21.1,  999.0,   23.5,   23.3,   24.0,   23.2,   23.8,   24.5,   24.1,   23.2,   22.6,   22.8,   23.3,   24.2,   24.9,   27.2,   31.8,   31.7,  999.0,  999.0,  999.0,  999.0,  999.0,  999.0,  999.0,  999.0,  999.0,  999.0,  999.0,  999.0,  999.0,  999.0,  999.0,  999.0,  999.0,    0.0,    0.1,   -0.0,    0.0,   -0.5,   -0.2,   -0.1,   -0.2,   -0.1,  999.0,  999.0,  999.0,  999.0,  999.0,  999.0,  999.0,  999.0,  999.0,  999.0,  999.0
2012/03/24 00:40,  999.0,  -13.0,  999.0,  999.0,   -4.5,   -5.8,   -9.1,  -11.7,  -12.1,  -12.7,  -12.1,  -12.2,  -12.0,  -10.4,   -6.4,   -3.2,    0.5,    1.7,  999.0,  999.0,  999.0,  999.0,  999.0,  999.0,   21.4,   24.0,   23.7,   22.1,   22.7,   23.9,   24.9,  999.0,   24.2,   23.2,   23.8,   24.2,   25.9,   27.9,  999.0,   34.4,  999.0,  999.0,  999.0,  999.0,  999.0,  999.0,  999.0,  999.0,  999.0,  999.0,  999.0,  999.0,  999.0,  999.0,  999.0,    0.1,   -0.1,   -0.5,   -0.1,    0.1,   -0.0,   -0.0,    0.1,   -0.3,   -0.0,   -0.3,   -0.1,    0.0,   -0.2,   -0.3,  999.0,  999.0,  999.0,  999.0,  999.0,  999.0,  999.0,  999.0,  999.0,  999.0
2012/03/24 00:50,  999.0,   -6.5,   -3.3,   -3.6,   -3.7,   -6.3,   -9.1,  -12.4,  -11.8,  -12.3,  -13.0,  -13.1,  -12.7,   -9.4,   -5.4,   -1.8,    1.2,    4.2,    6.7,  999.0,  999.0,  999.0,  999.0,  999.0,   25.5,   26.5,   25.6,   26.4,   25.9,   25.7,   25.6,   26.2,   25.4,   27.1,   25.9,  999.0,  999.0,  999.0,  999.0,  999.0,  999.0,  999.0,  999.0,  999.0,  999.0,  999.0,  999.0,  999.0,  999.0,   14.0,  999.0,  999.0,  999.0,  999.0,  999.0,  999.0,  999.0,    0.1,   -0.5,   -0.3,   -0.2,   -0.1,   -0.2,   -0.2,    0.2,   -0.1,   -0.0,   -0.1,   -0.0,  999.0,  999.0,  999.0,    0.1,  999.0,  999.0,  999.0,  999.0,  999.0,  999.0,  999.0
2012/03/24 01:00,  999.0,   -6.2,   -4.6,   -3.8,   -4.6,   -6.9,   -8.3,  -10.2,  -11.4,  -11.4,  -12.5,  -13.6,  -13.4,   -9.1,   -4.9,   -0.6,    2.4,    6.2,  999.0,  999.0,  999.0,  999.0,  999.0,   24.6,   25.4,   26.0,   26.7,   27.5,   28.6,   29.1,   30.1,   28.5,   28.8,   28.8,   29.9,  999.0,  999.0,  999.0,  999.0,  999.0,  999.0,  999.0,  999.0,  999.0,  999.0,  999.0,  999.0,  999.0,  999.0,  999.0,  999.0,  999.0,  999.0,  999.0,  999.0,  999.0,    0.4,    0.1,   -0.0,   -0.1,   -0.1,    0.3,   -0.0,   -0.1,   -0.1,    0.0,   -0.1,    0.0,   -1.1,    0.0,  999.0,    0.4,    0.0,   -0.2,  999.0,  999.0,  999.0,  999.0,  999.0,  999.0
2012/03/24 01:10,  999.0,  999.0,  999.0,  -10.1,   -4.4,   -6.5,   -8.8,  -10.3,  -11.3,  -11.9,  -11.5,  -12.6,  -13.3,  999.0,  999.0,  999.0,  999.0,  999.0,  999.0,  999.0,  999.0,  999.0,  999.0,  999.0,  999.0,  999.0,  999.0,   33.0,  999.0,  999.0,  999.0,  999.0,  999.0,  999.0,  999.0,  999.0,  999.0,  999.0,  999.0,  999.0,  999.0,  999.0,  999.0,  999.0,    0.2,    0.5,   -0.7,   -0.3,   -0.6,   -0.4,   -0.6,   -0.4,    0.0,   -0.2,   -0.1,   -0.1,   -0.2,   -0.1,    0.2,   -0.1,    0.2,    0.1,    0.2,    0.0,    0.0,    0.2,   -0.0,    0.1,   -0.2,  999.0,  999.0,  999.0,  999.0,  999.0,  999.0,  999.0,  999.0,  999.0,  999.0,  999.0
2012/03/24 01:20,  999.0,    7.8,   -0.7,   -0.8,   -1.6,   -1.4,   -9.9,  999.0,  999.0,  999.0,  999.0,  -10.2,  999.0,  999.0,    0.0,  999.0,  999.0,  999.0,  999.0,  999.0,  999.0,  999.0,  999.0,  999.0,  999.0,  999.0,  999.0,  999.0,  999.0,  999.0,  999.0,  999.0,  999.0,  999.0,  999.0,  999.0,  999.0,  999.0,  999.0,    0.4,   -0.1,   -0.0,  999.0,   -0.3,    0.0,    0.1,    0.2,    0.0,   -0.3,   -0.2,   -0.0,   -0.1,    0.1,   -0.1,    0.2,    0.0,    0.1,    0.1,    0.1,    0.2,    0.0,    0.4,    0.3,   -0.1,    0.2,    0.2,    0.2,   -0.0,   -0.1,  999.0,  999.0,  999.0,   -0.1,  999.0,  999.0,  999.0,  999.0,  999.0,  999.0,  999.0
2012/03/24 01:30,  999.0,    0.1,    0.1,   -0.2,   -0.0,   -0.2,   -0.1,    0.0,    0.2,    0.7,    0.6,    0.6,  999.0,  999.0,  999.0,  999.0,  999.0,  999.0,    0.1,    0.0,   -0.1,   -0.4,   -1.7,   -1.1,   -0.2,    6.5,    2.0,   -0.2,    0.2,    0.3,    0.3,    0.1,    0.3,  999.0,  999.0,  999.0,  999.0,  999.0,    0.6,   -0.1,    0.1,   -0.0,   -0.1,   -0.2,   -0.2,   -0.1,   -0.1,    0.1,    0.0,   -0.2,   -0.1,   -0.0,   -0.0,    0.1,   -0.1,    0.0,    0.1,   -0.1,   -0.2,   -0.0,   -0.0,    0.2,   -0.0,    0.1,    0.2,    0.0,    0.2,   -0.3,   -0.7,    0.1,    0.0,   -0.0,   -0.2,   -0.6,  999.0,  999.0,  999.0,  999.0,  999.0,  999.0
2012/03/24 01:40,  999.0,  999.0,  999.0,  999.0,  999.0,  999.0,  999.0,  999.0,  999.0,  999.0,  -10.0,  999.0,   -9.4,  999.0,  999.0,  999.0,  999.0,  999.0,  999.0,  999.0,  999.0,  999.0,   27.5,  999.0,  999.0,   31.1,   27.9,  999.0,  999.0,  999.0,  999.0,  999.0,  999.0,  999.0,  999.0,  999.0,  999.0,    0.3,    0.1,    0.0,   -0.0,   -0.2,   -0.1,    0.1,    0.1,   -0.0,   -0.1,    0.2,    0.2,    0.4,   -0.0,   -0.2,   -0.2,   -0.1,    0.1,   -0.0,    0.0,    0.2,    0.0,    0.0,    0.2,   -0.0,    0.2,   -0.0,   -0.2,   -0.0,    0.0,    0.1,    0.1,  999.0,  999.0,  999.0,   -0.2,   -0.0,  999.0,  999.0,  999.0,  999.0,  999.0,  999.0
2012/03/24 01:50,  999.0,  999.0,    0.1,   -0.3,   -1.8,   -3.8,   -6.9,   -9.1,  -11.1,  -11.3,  -11.1,   -8.9,   -9.7,   -4.2,   -3.7,  999.0,   -6.0,   -2.3,  999.0,  999.0,  999.0,   11.3,   14.9,   17.8,  999.0,  999.0,   11.2,    2.3,    0.1,   -0.0,   -0.1,    0.1,    0.0,   -0.1,  999.0,  999.0,  999.0,    0.0,    0.1,   -0.1,    0.1,    0.0,    0.0,    0.0,   -0.0,   -0.1,    0.3,   -0.0,    0.2,   -0.2,    0.0,   -0.0,    0.1,    0.2,   -0.2,   -0.1,   -0.1,    0.1,    0.2,   -0.2,   -0.1,    0.2,   -0.0,    0.1,    0.0,   -0.0,   -0.1,   -0.1,  999.0,  999.0,  999.0,  999.0,   -0.1,    0.0,  999.0,  999.0,  999.0,  999.0,  999.0,  999.0
2012/03/24 02:00,  999.0,   -4.2,  999.0,   -5.6,   -3.5,   -4.2,   -7.4,  -10.4,  -11.4,  -11.1,  -10.2,   -8.4,   -6.4,   -0.2,    5.5,   11.6,  999.0,  999.0,   23.0,   25.0,   28.0,   33.5,  999.0,  999.0,  999.0,  999.0,  999.0,   -0.8,   -0.5,   -0.1,   -0.0,   -0.1,   -0.0,  999.0,  999.0,   -0.3,  999.0,  999.0,  999.0,   -0.1,    0.0,   -0.0,    0.2,    0.2,    0.1,   -0.1,   -0.0,   -0.2,   -0.1,    0.0,   -0.1,   -0.2,    0.2,    0.1,   -0.0,    0.1,   -0.0,    0.1,    0.3,   -0.2,    0.0,    0.0,   -0.3,   -0.1,   -0.0,    0.1,   -0.0,    0.2,    0.4,  999.0,  999.0,  999.0,  999.0,  999.0,  999.0,  999.0,  999.0,  999.0,  999.0,  999.0
2012/03/24 02:10,  999.0,    0.1,    0.8,  999.0,    0.1,  999.0,  999.0,    0.6,   -0.3,   -0.9,   -1.1,   -0.3,    0.3,    0.7,   -0.0,   -0.0,    0.0,   -0.2,    0.1,   -0.1,    0.0,   -0.0,   -0.0,   -0.3,    0.1,    0.0,    0.0,   -0.1,   -0.2,    0.1,    0.1,    0.1,   -0.2,    0.0,  999.0,  999.0,    0.2,    0.1,   -0.2,   -0.2,   -0.1,   -0.1,   -0.0,    0.1,    0.1,   -0.0,    0.1,   -0.1,    0.1,   -0.0,   -0.2,   -0.0,    0.0,    0.0,   -0.1,    0.1,   -0.1,   -0.0,   -0.0,   -0.1,   -0.2,   -0.1,    0.0,    0.0,    0.2,   -0.0,    0.3,    0.2,   -0.0,  999.0,  999.0,  999.0,   -0.2,  999.0,  999.0,  999.0,  999.0,  999.0,  999.0,  999.0
2012/03/24 02:20,  999.0,    0.0,   -0.4,   -0.2,   -0.4,   -0.6,   -0.5,   -0.1,   -0.3,   -0.2,   -0.2,   -0.2,   -0.1,    0.1,    0.0,   -0.2,   -0.1,    0.0,    0.1,   -0.1,    0.0,   -0.1,    0.0,    0.1,   -0.0,    0.0,    0.1,    0.2,    0.0,    0.1,   -0.2,   -0.0,    0.0,    0.0,   -0.2,  999.0,   -0.0,    0.4,   -0.0,   -0.0,   -0.0,    0.1,    0.0,   -0.0,   -0.1,    0.0,   -0.0,    0.0,    0.1,   -0.2,    0.1,    0.2,   -0.2,   -0.2,    0.1,    0.1,   -0.1,    0.1,    0.4,    0.1,   -0.1,   -0.0,    0.3,    0.1,   -0.1,   -0.2,   -0.2,   -0.1,   -0.1,  999.0,  999.0,  999.0,   -0.0,  999.0,  999.0,  999.0,  999.0,  999.0,  999.0,  999.0
2012/03/24 02:30,  999.0,    0.0,   -0.0,    0.0,   -0.1,   -0.2,   -0.1,   -0.0,   -0.1,    0.0,   -0.0,   -0.1,   -0.1,   -0.0,    0.0,    0.1,   -0.0,   -0.0,   -0.1,   -0.1,    0.0,    0.1,    0.2,    0.1,    0.1,   -0.1,   -0.1,    0.2,    0.0,   -0.2,    0.1,   -0.1,   -0.2,    0.0,    0.0,   -0.0,  999.0,    0.0,    0.3,    0.3,    0.2,    0.0,   -0.1,    0.2,    0.2,    0.1,    0.1,    0.2,   -0.1,   -0.1,   -0.2,    0.1,    0.2,   -0.1,   -0.1,    0.0,   -0.0,    0.0,   -0.1,    0.3,   -0.0,    0.1,    0.2,    0.0,    0.0,    0.1,    0.1,   -0.1,  999.0,  999.0,  999.0,  999.0,  999.0,    0.2,  999.0,  999.0,  999.0,  999.0,  999.0,  999.0
2012/03/24 02:40,  999.0,    0.1,   -0.1,    0.1,   -0.0,   -0.0,   -0.0,   -0.1,   -0.0,    0.1,   -0.1,   -0.1,    0.1,    0.1,   -0.0,   -0.1,   -0.1,   -0.1,   -0.1,   -0.0,   -0.0,   -0.1,    0.1,   -0.1,   -0.2,    0.1,   -0.2,    0.1,   -0.0,    0.1,   -0.1,    0.0,    0.0,    0.0,    0.4,    0.2,   -0.2,   -0.1,    0.1,   -0.1,   -0.1,    0.0,   -0.1,   -0.0,   -0.1,   -0.1,    0.0,   -0.0,   -0.0,    0.0,   -0.0,   -0.0,   -0.0,   -0.1,   -0.0,    0.1,   -0.0,    0.0,    0.1,   -0.1,    0.0,    0.1,   -0.0,    0.1,    0.1,   -0.0,    0.1,   -0.1,  999.0,  999.0,  999.0,  999.0,    0.2,  999.0,  999.0,  999.0,  999.0,  999.0,  999.0,  999.0
2012/03/24 02:50,  999.0,    0.0,   -0.0,   -0.0,   -0.1,   -0.1,    0.1,   -0.1,    0.0,   -0.0,   -0.1,   -0.1,    0.1,    0.4,    0.1,    0.1,    0.0,   -0.1,   -0.0,    0.0,    0.1,    0.0,   -0.2,   -0.1,    0.1,   -0.1,    0.0,    0.2,    0.1,    0.0,    0.1,    0.0,    0.1,   -0.0,   -0.3,  999.0,  999.0,    0.1,   -0.0,   -0.3,   -0.0,    0.3,   -0.2,    0.2,    0.1,    0.1,    0.1,    0.2,    0.0,    0.0,    0.1,    0.1,   -0.1,   -0.0,   -0.1,   -0.0,    0.2,   -0.0,   -0.2,    0.1,   -0.2,    0.2,   -0.1,    0.1,   -0.1,    0.0,    0.1,   -0.1,  999.0,  999.0,  999.0,  999.0,   -0.2,   -0.3,  999.0,  999.0,  999.0,  999.0,  999.0,  999.0
2012/03/24 03:00,  999.0,    0.1,   -0.0,   -0.1,   -0.1,   -0.0,   -0.0,   -0.0,   -0.0,   -0.1,   -0.1,   -0.1,    0.0,    0.2,   -0.0,    0.0,   -0.0,   -0.0,   -0.0,    0.0,   -0.1,   -0.1,   -0.2,   -0.0,   -0.1,   -0.0,    0.1,   -0.1,   -0.1,   -0.0,    0.4,    0.2,    0.0,    0.1,  999.0,  999.0,  999.0,    0.2,    0.2,    0.0,   -0.2,    0.1,    0.1,    0.0,    0.2,    0.1,    0.1,   -0.1,    0.3,   -0.0,    0.0,   -0.1,    0.0,    0.3,    0.1,    0.1,   -0.2,   -0.2,    0.1,   -0.0,    0.2,    0.1,    0.2,   -0.0,    0.3,    0.2,   -0.1,   -0.2,    0.3,  999.0,  999.0,  999.0,  999.0,  999.0,  999.0,  999.0,  999.0,  999.0,  999.0,  999.0
2012/03/24 03:10,  999.0,   -0.0,   -0.2,   -0.2,   -0.2,   -0.0,   -0.0,   -0.1,   -0.1,    0.1,   -0.0,    0.0,    0.2,    0.1,    0.0,   -0.0,    0.1,    0.1,   -0.0,   -0.1,    0.1,    0.0,   -0.0,    0.1,    0.0,    0.1,   -0.2,   -0.2,    0.1,    0.0,    0.0,   -0.1,    0.0,    0.1,  999.0,    0.2,   -0.1,  999.0,   -0.2,    0.1,    0.3,   -0.0,    0.0,   -0.0,    0.1,    0.1,    0.1,   -0.2,   -0.1,   -0.0,   -0.1,   -0.1,   -0.1,   -0.2,   -0.1,   -0.0,   -0.2,   -0.2,    0.1,   -0.3,   -0.3,    0.0,   -0.1,   -0.2,    0.0,   -0.0,   -0.0,   -0.4,   -0.2,  999.0,  999.0,  999.0,  999.0,  999.0,  999.0,  999.0,  999.0,  999.0,  999.0,  999.0
2012/03/24 03:20,  999.0,   -0.0,   -0.0,   -0.5,   -0.3,   -0.2,   -0.1,   -0.1,   -0.1,   -0.2,   -0.6,    0.0,   -0.1,   -0.0,   -0.1,   -0.0,    0.0,    0.0,   -0.1,    0.1,    0.0,    0.0,    0.1,    0.1,    0.0,   -0.0,    0.1,   -0.4,    0.1,   -0.2,   -0.4,   -0.1,   -0.0,    0.1,  999.0,  999.0,  999.0,  999.0,   -0.1,   -0.2,   -0.1,    0.0,    0.3,   -0.0,   -0.0,   -0.0,   -0.1,   -0.1,   -0.1,  999.0,    0.1,    0.0,   -0.1,    0.1,   -0.1,   -0.1,    0.1,    0.3,    0.2,    0.1,    0.2,    0.4,    0.4,   -0.0,    0.0,   -0.1,  999.0,    0.1,  999.0,  999.0,  999.0,  999.0,   -0.2,  999.0,  999.0,  999.0,  999.0,  999.0,  999.0,  999.0
2012/03/24 03:30,  999.0,    0.1,    0.2,   -1.4,   -0.5,   -2.8,   -0.2,   -0.5,    0.0,   -0.6,   -1.0,    0.4,  999.0,   -0.1,   -0.3,   -0.1,   -0.1,   -0.1,   -0.1,   -0.1,    0.1,    0.0,    0.0,    0.1,  999.0,   -0.0,    0.1,  999.0,    0.1,    0.1,    0.2,   -0.2,   -0.0,    0.1,  999.0,  999.0,  999.0,  999.0,   -0.1,    0.4,   -0.0,    0.5,  999.0,    0.1,   -0.2,    0.0,   -0.0,   -0.1,    0.1,    0.3,   -0.1,    0.1,   -0.1,    0.2,   -0.1,    0.2,   -0.2,    0.1,   -0.1,   -0.2,   -0.1,   -0.1,   -0.1,    0.0,   -0.2,   -0.1,  999.0,  999.0,  999.0,  999.0,  999.0,  999.0,  999.0,  999.0,  999.0,  999.0,  999.0,  999.0,  999.0,  999.0
2012/03/24 03:40,  999.0,   -1.8,   -2.5,  999.0,  999.0,  999.0,  999.0,   -1.2,   -2.1,   -4.6,   -3.0,  999.0,  999.0,  999.0,   -1.1,   -0.5,   -0.0,   -0.0,   -0.0,    0.1,   -0.0,   -0.0,  999.0,   -0.4,    0.1,   -0.0,   -0.2,    0.1,    0.1,    0.2,   -0.4,  999.0,  999.0,  999.0,  999.0,  999.0,  999.0,  999.0,    0.2,  999.0,   -0.0,    0.4,  999.0,  999.0,   -0.2,    0.0,   -0.1,    0.3,  999.0,  999.0,    0.3,    0.4,  999.0,   -0.0,   -0.0,    0.0,    0.2,  999.0,    0.1,   -0.1,   -0.2,    0.1,    0.1,  999.0,    0.2,   -0.0,   -0.3,   -0.0,  999.0,  999.0,  999.0,  999.0,  999.0,  999.0,  999.0,  999.0,  999.0,  999.0,  999.0,  999.0
2012/03/24 03:50,  999.0,   -0.6,   -2.3,  999.0,  999.0,  999.0,   -2.0,    0.2,   -1.2,   -2.3,   -0.2,    2.3,  999.0,  999.0,   -3.0,  999.0,   -1.0,   -0.3,   -0.0,   -0.1,   -0.1,   -0.1,  999.0,   -0.1,   -0.3,  999.0,    0.1,    0.2,  999.0,    0.2,   -0.0,  999.0,  999.0,  999.0,  999.0,  999.0,  999.0,  999.0,  999.0,    0.0,    0.2,  999.0,  999.0,   -0.3,    0.2,    0.1,   -0.1,    0.0,    0.1,    0.0,    0.1,  999.0,  999.0,    0.7,    0.4,   -0.1,    0.5,   -0.0,    0.3,    0.1,   -0.0,    0.0,   -0.1,   -0.1,   -0.1,    0.1,  999.0,   -0.2,  999.0,  999.0,  999.0,  999.0,  999.0,  999.0,  999.0,  999.0,  999.0,  999.0,  999.0,  999.0
2012/03/24 04:00,  999.0,   -0.5,  999.0,  999.0,  999.0,  999.0,   -0.8,   -0.6,   -0.7,    3.1,  999.0,  999.0,  999.0,  999.0,  999.0,   -1.1,   -0.7,   -0.2,   -0.0,  999.0,   -0.4,  999.0,  999.0,  999.0,  999.0,  999.0,   -0.4,   -0.2,  999.0,    0.0,  999.0,   -0.2,  999.0,  999.0,  999.0,  999.0,  999.0,  999.0,  999.0,    0.0,   -0.3,   -0.2,    0.4,    0.5,    0.0,   -0.3,    0.3,  999.0,   -0.1,    0.0,    0.2,  999.0,   -0.1,   -0.4,  999.0,   -0.3,    0.2,  999.0,   -0.0,    0.1,    0.3,    0.1,  999.0,   -0.2,    0.0,   -0.2,   -0.6,   -0.3,  999.0,  999.0,  999.0,  999.0,  999.0,  999.0,  999.0,  999.0,  999.0,  999.0,  999.0,  999.0
2012/03/24 04:10,  999.0,  999.0,  999.0,  999.0,  999.0,  999.0,   -3.4,   -3.6,   -2.1,   -2.8,   -1.1,    2.2,  999.0,  999.0,  999.0,    0.1,    0.1,    0.1,    0.1,   -0.3,   -0.1,  999.0,  999.0,  999.0,    0.2,  999.0,  999.0,  999.0,  999.0,  999.0,  999.0,  999.0,  999.0,  999.0,  999.0,  999.0,  999.0,  999.0,  999.0,  999.0,  999.0,  999.0,  999.0,   -0.1,    0.2,   -0.1,   -0.5,  999.0,   -0.2,   -0.1,  999.0,    0.3,  999.0,   -0.1,   -0.0,  999.0,   -0.1,    0.3,   -0.2,    0.5,    0.0,   -0.2,    0.1,   -0.5,   -0.3,   -0.4,   -0.1,    0.3,   -0.0,  999.0,  999.0,  999.0,  999.0,  999.0,  999.0,  999.0,  999.0,  999.0,  999.0,  999.0
2012/03/24 04:20,  999.0,   -4.4,  999.0,   -5.1,   -5.5,  999.0,  999.0,  999.0,   -3.0,   -1.0,    0.3,  999.0,  999.0,  999.0,   -1.0,    0.3,   -0.1,    0.1,    0.1,   -0.2,   -0.1,  999.0,  999.0,  999.0,  999.0,  999.0,  999.0,  999.0,  999.0,  999.0,  999.0,  999.0,  999.0,  999.0,  999.0,  999.0,  999.0,  999.0,  999.0,  999.0,  999.0,  999.0,  999.0,   -0.0,   -0.1,    0.1,   -0.1,   -0.2,  999.0,  999.0,  999.0,   -0.1,  999.0,    0.0,   -0.1,    0.0,    0.6,  999.0,   -0.3,   -0.2,    0.0,   -0.2,  999.0,   -0.0,    0.2,    0.2,  999.0,  999.0,    0.0,  999.0,  999.0,  999.0,  999.0,  999.0,  999.0,  999.0,  999.0,  999.0,  999.0,  999.0
2012/03/24 04:30,  999.0,   -1.7,   -2.7,  999.0,  999.0,  999.0,  999.0,  999.0,   -1.8,    0.3,  999.0,  999.0,  999.0,  999.0,   -0.8,   -0.8,   -0.2,   -0.4,   -0.3,   -0.1,    0.4,    0.0,  999.0,  999.0,  999.0,  999.0,  999.0,  999.0,  999.0,  999.0,  999.0,  999.0,  999.0,  999.0,  999.0,  999.0,  999.0,  999.0,  999.0,  999.0,  999.0,  999.0,  999.0,  999.0,  999.0,  999.0,    0.3,  999.0,  999.0,  999.0,   -0.0,  999.0,  999.0,  999.0,   -0.0,    0.3,  999.0,   -0.2,    0.2,    0.0,    0.1,   -0.1,    0.1,   -0.2,    0.0,   -0.0,   -0.3,  999.0,  999.0,  999.0,  999.0,  999.0,  999.0,  999.0,  999.0,  999.0,  999.0,  999.0,  999.0,  999.0
2012/03/24 04:40,  999.0,   -1.2,   -1.6,   -1.5,   -1.5,   -2.4,   -3.7,   -3.0,   -2.2,  999.0,  999.0,  999.0,  999.0,  999.0,   -0.2,   -0.7,    0.0,   -0.2,    0.1,   -0.2,  999.0,  999.0,  999.0,  999.0,   -0.1,  999.0,  999.0,  999.0,  999.0,  999.0,  999.0,  999.0,  999.0,  999.0,  999.0,  999.0,  999.0,  999.0,  999.0,  999.0,  999.0,  999.0,  999.0,  999.0,  999.0,  999.0,  999.0,  999.0,  999.0,  999.0,  999.0,  999.0,  999.0,  999.0,  999.0,   -0.4,   -0.1,  999.0,   -0.1,    0.2,    0.0,    0.4,  999.0,  999.0,   -0.0,  999.0,  999.0,  999.0,  999.0,  999.0,  999.0,  999.0,  999.0,  999.0,  999.0,  999.0,  999.0,  999.0,  999.0,  999.0
2012/03/24 04:50,  999.0,   -0.2,   -0.1,   -0.5,   -0.6,   -0.8,   -1.4,   -1.1,    0.0,    0.5,  999.0,  999.0,  999.0,  999.0,   -0.8,   -0.4,   -0.4,    0.3,    0.2,   -0.1,    0.3,  999.0,  999.0,  999.0,    0.4,   -0.0,  999.0,  999.0,  999.0,  999.0,  999.0,  999.0,  999.0,  999.0,  999.0,  999.0,  999.0,  999.0,  999.0,  999.0,  999.0,  999.0,  999.0,  999.0,  999.0,  999.0,  999.0,  999.0,  999.0,  999.0,  999.0,  999.0,  999.0,   -0.2,   -0.2,    0.1,    0.1,  999.0,  999.0,  999.0,   -0.4,  999.0,  999.0,    0.0,  999.0,  999.0,  999.0,  999.0,  999.0,  999.0,  999.0,  999.0,  999.0,  999.0,  999.0,  999.0,  999.0,  999.0,  999.0,  999.0
2012/03/24 05:00,  999.0,   -0.2,   -1.3,   -1.2,   -2.5,   -3.1,   -3.6,  999.0,  999.0,  999.0,  999.0,  999.0,  999.0,  999.0,  999.0,   -1.2,   -0.5,  999.0,    0.0,   -0.1,   -0.1,  999.0,  999.0,  999.0,  999.0,  999.0,  999.0,  999.0,  999.0,  999.0,  999.0,  999.0,  999.0,  999.0,  999.0,  999.0,  999.0,  999.0,  999.0,  999.0,  999.0,  999.0,  999.0,  999.0,  999.0,  999.0,  999.0,  999.0,  999.0,  999.0,  999.0,  999.0,  999.0,    0.0,  999.0,  999.0,  999.0,   -0.0,  999.0,  999.0,  999.0,  999.0,  999.0,  999.0,   -0.1,  999.0,  999.0,  999.0,  999.0,  999.0,  999.0,  999.0,  999.0,  999.0,  999.0,  999.0,  999.0,  999.0,  999.0,  999.0
2012/03/24 05:10,  999.0,   -0.7,    0.0,   -0.9,   -3.1,   -3.9,   -4.9,  999.0,  999.0,  999.0,  999.0,  999.0,   -2.8,  999.0,  999.0,   -0.6,   -0.3,  999.0,   -0.3,   -0.1,  999.0,  999.0,  999.0,  999.0,  999.0,  999.0,  999.0,  999.0,  999.0,  999.0,  999.0,  999.0,  999.0,  999.0,  999.0,  999.0,  999.0,  999.0,  999.0,  999.0,  999.0,  999.0,  999.0,  999.0,  999.0,  999.0,  999.0,  999.0,  999.0,  999.0,  999.0,  999.0,  999.0,  999.0,  999.0,  999.0,  999.0,  999.0,  999.0,   -0.2,  999.0,  999.0,  999.0,  999.0,  999.0,  999.0,  999.0,  999.0,  999.0,  999.0,  999.0,  999.0,  999.0,  999.0,  999.0,  999.0,  999.0,  999.0,  999.0,  999.0
2012/03/24 05:20,  999.0,  999.0,    0.7,    0.1,    0.3,    0.4,    2.6,    1.2,    1.9,  999.0,  999.0,  999.0,  999.0,  999.0,  999.0,   -0.5,   -0.1,  999.0,  999.0,   -0.2,  999.0,  999.0,  999.0,  999.0,  999.0,  999.0,  999.0,  999.0,  999.0,  999.0,  999.0,  999.0,  999.0,  999.0,  999.0,  999.0,  999.0,  999.0,  999.0,  999.0,  999.0,  999.0,  999.0,  999.0,  999.0,  999.0,  999.0,  999.0,  999.0,  999.0,  999.0,  999.0,  999.0,  999.0,  999.0,  999.0,    0.4,  999.0,  999.0,  999.0,  999.0,  999.0,  999.0,  999.0,  999.0,  999.0,  999.0,  999.0,  999.0,  999.0,  999.0,  999.0,  999.0,  999.0,  999.0,  999.0,  999.0,  999.0,  999.0,  999.0
2012/03/24 05:30,  999.0,   -1.1,    2.7,    1.9,    1.4,  999.0,    1.1,    1.0,    3.3,  999.0,  999.0,  999.0,  999.0,  999.0,  999.0,    0.2,  999.0,  999.0,  999.0,  999.0,  999.0,  999.0,  999.0,  999.0,  999.0,  999.0,  999.0,  999.0,  999.0,  999.0,  999.0,  999.0,  999.0,  999.0,  999.0,  999.0,  999.0,  999.0,  999.0,  999.0,  999.0,  999.0,  999.0,  999.0,  999.0,  999.0,  999.0,  999.0,  999.0,  999.0,  999.0,  999.0,  999.0,  999.0,  999.0,    0.1,  999.0,  999.0,  999.0,  999.0,  999.0,  999.0,  999.0,  999.0,  999.0,  999.0,  999.0,  999.0,  999.0,  999.0,  999.0,  999.0,  999.0,  999.0,  999.0,  999.0,  999.0,  999.0,  999.0,  999.0
2012/03/24 05:40,  999.0,    0.7,    0.6,    0.8,    0.9,   -1.4,  999.0,   -0.2,  999.0,  999.0,  999.0,  999.0,  999.0,   -0.2,  999.0,    0.3,    0.0,  999.0,   -0.2,  999.0,  999.0,  999.0,  999.0,  999.0,  999.0,  999.0,  999.0,  999.0,  999.0,  999.0,  999.0,  999.0,  999.0,  999.0,  999.0,  999.0,  999.0,  999.0,  999.0,  999.0,  999.0,  999.0,  999.0,  999.0,  999.0,  999.0,  999.0,  999.0,  999.0,  999.0,  999.0,  999.0,  999.0,  999.0,  999.0,  999.0,  999.0,  999.0,  999.0,  999.0,  999.0,  999.0,  999.0,  999.0,  999.0,  999.0,  999.0,  999.0,  999.0,  999.0,  999.0,  999.0,  999.0,  999.0,  999.0,  999.0,  999.0,  999.0,  999.0,  999.0
2012/03/24 05:50,  999.0,   -0.3,   -0.3,   -1.0,   -1.0,   -1.1,   -0.2,   -0.6,    0.4,    0.2,  999.0,  999.0,  999.0,  999.0,   -0.2,   -0.2,    0.3,  999.0,    0.2,   -0.0,    0.3,  999.0,  999.0,  999.0,  999.0,  999.0,  999.0,  999.0,  999.0,  999.0,  999.0,  999.0,  999.0,  999.0,  999.0,  999.0,  999.0,  999.0,  999.0,  999.0,  999.0,  999.0,  999.0,  999.0,   -0.5,  999.0,  999.0,  999.0,   -0.5,  999.0,  999.0,  999.0,  999.0,  999.0,  999.0,   -0.6,   -0.7,  999.0,  999.0,   -0.1,  999.0,  999.0,    0.1,  999.0,  999.0,   -0.2,  999.0,  999.0,  999.0,  999.0,  999.0,  999.0,    0.1,  999.0,  999.0,  999.0,  999.0,  999.0,  999.0,  999.0
2012/03/24 06:00,  999.0,   -0.2,   -0.1,    0.1,   -0.6,   -0.4,   -0.4,   -0.2,   -0.0,   -0.2,  999.0,  999.0,   -0.2,    0.2,    0.1,    0.0,    0.0,  999.0,   -0.1,   -0.2,    0.3,  999.0,  999.0,  999.0,  999.0,  999.0,  999.0,  999.0,  999.0,  999.0,  999.0,  999.0,  999.0,  999.0,  999.0,  999.0,  999.0,  999.0,  999.0,  999.0,  999.0,  999.0,  999.0,  999.0,  999.0,  999.0,  999.0,  999.0,   -0.4,  999.0,   -0.1,  999.0,  999.0,  999.0,  999.0,   -0.5,  999.0,   -0.2,  999.0,   -0.6,   -0.3,   -0.3,   -0.4,   -0.5,    0.0,  999.0,  999.0,  999.0,  999.0,  999.0,  999.0,  999.0,  999.0,  999.0,  999.0,  999.0,  999.0,  999.0,  999.0,  999.0
2012/03/24 06:10,  999.0,   -0.3,    0.0,   -0.3,    0.0,   -0.1,    0.1,   -0.1,    0.4,    0.3,  999.0,  999.0,   -0.3,   -0.3,   -0.4,   -0.2,    0.1,  999.0,   -0.0,    0.2,  999.0,  999.0,  999.0,  999.0,  999.0,  999.0,  999.0,   -0.1,   -0.0,  999.0,  999.0,  999.0,  999.0,  999.0,  999.0,  999.0,  999.0,  999.0,  999.0,  999.0,  999.0,  999.0,  999.0,  999.0,   -0.1,   -0.1,  999.0,  999.0,  999.0,  999.0,  999.0,  999.0,  999.0,  999.0,   -0.4,   -0.1,  999.0,  999.0,  999.0,   -0.1,   -0.3,  999.0,  999.0,  999.0,   -0.2,  999.0,  999.0,  999.0,  999.0,  999.0,  999.0,  999.0,  999.0,  999.0,  999.0,  999.0,  999.0,  999.0,  999.0,  999.0
2012/03/24 06:20,  999.0,    0.1,    0.1,    0.2,    0.1,    0.1,    0.2,    0.2,    0.6,    0.3,  999.0,    0.4,    0.2,    0.1,  999.0,  999.0,    0.0,    0.1,   -0.1,    0.0,    0.1,  999.0,  999.0,    0.0,   -0.0,  999.0,  999.0,  999.0,    0.0,  999.0,   -0.2,  999.0,  999.0,  999.0,  999.0,  999.0,  999.0,  999.0,  999.0,  999.0,  999.0,  999.0,  999.0,   -0.2,  999.0,    0.1,  999.0,   -0.2,  999.0,  999.0,  999.0,  999.0,  999.0,   -0.0,   -0.1,    0.3,    0.0,   -0.2,    0.0,   -0.0,  999.0,  999.0,  999.0,  999.0,    0.1,  999.0,   -0.1,  999.0,   -0.0,  999.0,  999.0,  999.0,  999.0,  999.0,  999.0,  999.0,  999.0,  999.0,  999.0,  999.0
2012/03/24 06:30,  999.0,    0.1,    0.0,   -0.1,   -0.2,   -0.1,   -0.0,   -0.0,   -0.0,    0.2,    0.2,    0.1,   -0.0,   -0.2,   -0.1,    0.1,   -0.1,    0.2,    0.1,    0.1,   -0.2,  999.0,   -0.8,   -0.2,   -0.5,    0.4,    0.4,    0.3,    0.2,    0.1,  999.0,    0.0,    0.1,  999.0,  999.0,  999.0,  999.0,  999.0,  999.0,  999.0,    0.2,  999.0,  999.0,  999.0,  999.0,    0.4,   -0.0,  999.0,   -0.1,    0.1,    0.4,  999.0,  999.0,  999.0,   -0.1,    0.0,   -0.1,    0.1,    0.0,   -0.2,   -0.2,   -0.1,  999.0,    0.2,    0.2,   -0.3,  999.0,   -0.3,  999.0,  999.0,  999.0,  999.0,  999.0,  999.0,  999.0,  999.0,  999.0,  999.0,  999.0,  999.0
2012/03/24 06:40,  999.0,   -0.0,   -0.1,   -0.0,   -0.0,   -0.0,    0.1,   -0.0,    0.1,   -0.0,   -0.1,   -0.0,   -0.1,   -0.1,   -0.1,    0.1,   -0.0,   -0.0,    0.0,    0.1,    0.1,   -0.1,    0.2,    0.3,    0.2,    0.4,  999.0,    0.7,  999.0,  999.0,   -0.2,  999.0,  999.0,  999.0,  999.0,  999.0,  999.0,  999.0,  999.0,  999.0,  999.0,   -0.3,  999.0,   -0.0,  999.0,    0.0,  999.0,    0.1,    0.2,    0.1,    0.1,  999.0,    0.1,   -0.1,    0.0,   -0.1,   -0.1,   -0.0,   -0.0,   -0.0,   -0.1,   -0.0,   -0.1,    0.1,    0.2,    0.6,   -0.1,    0.2,  999.0,  999.0,  999.0,  999.0,  999.0,  999.0,  999.0,  999.0,  999.0,  999.0,  999.0,  999.0
2012/03/24 06:50,  999.0,    0.2,   -0.0,   -0.1,    0.1,    0.2,   -0.2,   -0.0,    0.2,    0.0,    0.1,   -0.0,   -0.1,   -0.1,   -0.0,   -0.0,   -0.0,    0.0,    0.1,    0.1,   -0.2,   -0.1,  999.0,    0.0,    0.2,  999.0,  999.0,  999.0,    0.2,    0.2,    0.3,   -0.1,    0.1,  999.0,  999.0,  999.0,  999.0,  999.0,  999.0,    0.0,  999.0,    0.3,  999.0,   -0.3,  999.0,    0.3,    0.2,  999.0,    0.0,    0.1,    0.1,  999.0,    0.1,    0.2,  999.0,   -0.1,   -0.3,   -0.1,   -0.0,    0.1,   -0.1,    0.1,   -0.0,   -0.0,    0.3,  999.0,   -0.0,   -0.5,  999.0,  999.0,  999.0,  999.0,  999.0,  999.0,  999.0,  999.0,  999.0,  999.0,  999.0,  999.0
2012/03/24 07:00,  999.0,   -0.1,   -0.1,    0.1,    0.2,    0.1,    0.1,    0.0,    0.1,   -0.0,   -0.0,    0.0,   -0.1,    0.1,    0.0,   -0.2,    0.0,    0.1,    0.1,    0.0,    0.1,   -0.1,    0.0,  999.0,   -0.1,   -0.0,  999.0,    0.0,   -0.1,  999.0,  999.0,  999.0,   -0.1,  999.0,  999.0,  999.0,  999.0,  999.0,  999.0,    0.0,  999.0,   -0.1,  999.0,  999.0,  999.0,   -0.1,  999.0,    0.3,    0.3,  999.0,  999.0,    0.0,  999.0,   -0.6,   -0.1,    0.2,   -0.0,    0.1,    0.0,   -0.0,   -0.0,   -0.0,  999.0,   -0.2,  999.0,   -0.1,  999.0,  999.0,  999.0,  999.0,  999.0,  999.0,  999.0,  999.0,  999.0,  999.0,  999.0,  999.0,  999.0,  999.0
2012/03/24 07:10,  999.0,   -0.0,   -0.2,   -0.3,   -0.1,    0.0,    0.0,   -0.0,   -0.0,    0.0,   -0.1,   -0.2,    0.1,    0.0,   -0.0,    0.0,    0.0,   -0.0,    0.0,    0.1,    0.1,    0.0,    0.1,    0.3,    0.1,    0.1,   -0.2,   -0.0,  999.0,  999.0,  999.0,  999.0,    0.0,  999.0,    0.0,  999.0,  999.0,  999.0,  999.0,  999.0,  999.0,  999.0,    0.1,    0.3,    0.4,    0.2,   -0.2,  999.0,   -0.1,   -0.0,   -0.1,  999.0,   -0.1,  999.0,   -0.1,   -0.2,    0.0,  999.0,   -0.2,    0.2,   -0.1,  999.0,  999.0,  999.0,   -0.1,    0.1,    0.2,  999.0,  999.0,  999.0,  999.0,  999.0,  999.0,  999.0,  999.0,  999.0,  999.0,  999.0,  999.0,  999.0
2012/03/24 07:20,  999.0,    0.1,    0.1,    0.0,    0.0,    0.1,   -0.1,   -0.1,   -0.0,    0.1,   -0.1,   -0.0,   -0.0,   -0.1,   -0.0,    0.1,   -0.0,    0.2,    0.1,   -0.0,   -0.2,    0.1,    0.2,    0.2,   -0.2,   -0.1,    0.1,   -0.5,   -0.2,   -0.1,   -0.6,   -0.1,  999.0,    0.3,   -0.4,   -0.2,  999.0,  999.0,  999.0,    0.0,   -0.0,   -0.2,    0.1,   -0.0,    0.0,    0.0,   -0.2,    0.2,    0.2,   -0.2,   -0.2,   -0.1,   -0.3,   -0.1,   -0.3,    0.0,   -0.0,   -0.1,   -0.1,   -0.1,    0.2,   -0.2,   -0.1,   -0.0,    0.9,  999.0,   -0.2,  999.0,  999.0,  999.0,  999.0,  999.0,  999.0,  999.0,  999.0,  999.0,  999.0,  999.0,  999.0,  999.0
2012/03/24 07:30,  999.0,   -0.1,    0.1,    0.1,    0.2,   -0.0,    0.2,   -0.0,    0.1,   -0.1,   -0.1,   -0.1,    0.1,    0.3,    0.3,    0.2,    0.1,    0.3,    0.1,    0.2,    0.1,   -0.1,   -0.0,  999.0,  999.0,   -0.1,    0.1,   -0.0,  999.0,   -0.0,    0.1,   -0.3,   -0.1,   -0.0,  999.0,   -0.1,  999.0,  999.0,  999.0,    0.3,    0.0,    0.2,  999.0,  999.0,   -0.2,    0.1,    0.2,  999.0,    0.0,    0.4,   -0.2,    0.2,    0.2,   -0.0,   -0.0,    0.1,    0.1,    0.1,   -0.0,    0.2,    0.0,   -0.3,   -0.4,  999.0,  999.0,  999.0,  999.0,  999.0,  999.0,  999.0,  999.0,  999.0,  999.0,  999.0,  999.0,  999.0,  999.0,  999.0,  999.0,  999.0
2012/03/24 07:40,  999.0,    0.1,    0.3,    0.1,   -0.1,    0.2,    0.1,   -0.1,    0.1,   -0.1,   -0.2,    0.5,   -0.2,    0.0,    0.2,    0.1,    0.2,    0.2,    0.2,    0.2,    0.2,    0.2,   -0.0,  999.0,    0.2,    0.0,   -0.1,    0.2,   -0.2,  999.0,    0.0,  999.0,   -0.1,   -0.4,    0.0,  999.0,  999.0,  999.0,    0.6,   -0.2,    0.1,   -0.4,    0.2,    0.1,    0.5,    0.2,   -0.4,   -0.3,   -0.1,   -0.4,   -0.2,    0.2,    0.3,    0.2,    0.2,    0.3,    0.0,   -0.0,    0.1,   -0.2,   -0.5,    0.2,   -0.1,    0.1,    0.2,  999.0,  999.0,  999.0,  999.0,  999.0,  999.0,  999.0,  999.0,  999.0,  999.0,  999.0,  999.0,  999.0,  999.0,  999.0
2012/03/24 07:50,  999.0,   -0.0,    0.2,    0.1,    0.2,    0.0,    0.1,    0.1,    0.2,    0.0,    0.1,    0.1,    0.0,   -0.0,    0.1,    0.2,    0.2,    0.2,    0.0,   -0.0,    0.3,    0.4,    0.3,    0.1,   -0.0,   -0.3,    0.0,    0.3,    0.0,    0.1,  999.0,  999.0,    0.3,    0.1,    0.1,   -0.1,   -0.0,  999.0,  999.0,  999.0,  999.0,  999.0,    0.3,    0.1,    0.0,   -0.2,    0.2,    0.3,    0.2,   -0.5,    0.0,   -0.1,  999.0,   -0.1,    0.2,   -0.1,   -0.0,   -0.3,   -0.1,    0.0,   -0.2,    0.3,   -0.4,    0.1,  999.0,  999.0,  999.0,    0.2,  999.0,  999.0,  999.0,  999.0,  999.0,  999.0,  999.0,  999.0,  999.0,  999.0,  999.0,  999.0
2012/03/24 08:00,  999.0,    0.0,   -0.2,   -0.0,    0.1,    0.1,    0.1,    0.1,    0.0,   -0.2,    0.1,    0.1,    0.1,    0.1,    0.2,    0.2,    0.1,    0.0,   -0.0,   -0.0,   -0.1,   -0.0,    0.1,   -0.1,   -0.1,    0.0,    0.1,    0.0,    0.0,    0.0,   -0.2,    0.0,    0.3,    0.2,   -0.1,   -0.4,  999.0,   -0.3,   -0.1,    0.1,   -0.1,   -0.2,  999.0,    0.1,    0.0,   -0.1,   -0.2,   -0.0,   -0.1,   -0.3,   -0.4,   -0.2,   -0.0,  999.0,    0.1,   -0.0,    0.1,    0.1,    0.1,   -0.1,    0.2,   -0.4,   -0.0,   -0.2,    0.1,  999.0,  999.0,    0.3,    0.6,  999.0,  999.0,  999.0,  999.0,  999.0,  999.0,  999.0,  999.0,  999.0,  999.0,  999.0
2012/03/24 08:10,  999.0,    0.1,    0.5,   -0.1,    0.1,    0.1,   -0.0,   -0.1,   -0.1,    0.0,    0.0,   -0.1,   -0.1,    0.0,   -0.0,   -0.0,    0.3,    0.1,    0.0,    0.1,    0.2,   -0.1,   -0.1,    0.0,    0.0,   -0.1,   -0.0,   -0.1,   -0.1,   -0.2,   -0.1,   -0.1,    0.1,   -0.0,   -0.1,   -0.1,    0.0,   -0.0,   -0.2,   -0.2,   -0.1,   -0.2,    0.1,   -0.2,   -0.1,   -0.0,   -0.1,   -0.2,   -0.2,    0.1,    0.5,    0.1,   -0.2,   -0.1,   -0.0,    0.2,    0.2,   -0.1,    0.2,    0.1,   -0.1,    0.1,    0.4,   -0.1,  999.0,   -0.1,  999.0,  999.0,  999.0,  999.0,  999.0,  999.0,  999.0,  999.0,  999.0,  999.0,  999.0,  999.0,  999.0,  999.0
2012/03/24 08:20,  999.0,    0.1,    0.0,    0.1,   -0.1,   -0.1,   -0.0,    0.0,    0.0,    0.0,   -0.0,   -0.0,    0.1,    0.2,    0.0,   -0.0,    0.0,   -0.0,   -0.0,   -0.1,   -0.0,    0.0,   -0.0,   -0.1,    0.1,   -0.0,    0.2,    0.1,   -0.0,   -0.1,   -0.3,    0.1,    0.2,    0.1,    0.6,   -0.3,   -0.2,    0.0,    0.2,    0.1,    0.0,    0.0,    0.2,    0.1,   -0.2,   -0.1,   -0.2,   -0.1,    0.0,    0.1,  999.0,   -0.0,   -0.1,   -0.0,    0.3,   -0.1,   -0.1,   -0.1,   -0.0,    0.1,   -0.1,   -0.1,   -0.2,   -0.1,    0.1,    0.1,  999.0,    0.3,  999.0,  999.0,  999.0,  999.0,  999.0,  999.0,  999.0,  999.0,  999.0,  999.0,  999.0,  999.0
2012/03/24 08:30,  999.0,    0.2,   -0.2,    0.1,    0.2,    0.0,    0.1,    0.1,    0.0,    0.0,    0.1,    0.1,    0.1,   -0.0,   -0.1,    0.1,   -0.0,    0.1,    0.1,   -0.0,   -0.0,    0.2,    0.1,    0.1,    0.1,    0.2,    0.2,    0.0,   -0.1,    0.0,    0.0,    0.1,   -0.2,   -0.0,   -0.2,    0.1,   -0.1,   -0.1,    0.2,   -0.1,    0.1,    0.1,   -0.1,   -0.1,   -0.3,   -0.4,    0.0,   -0.0,   -0.0,   -0.1,   -0.3,   -0.1,    0.0,    0.5,   -0.1,   -0.1,   -0.2,    0.0,   -0.0,   -0.1,   -0.1,   -0.0,    0.0,    0.2,    0.1,  999.0,  999.0,  999.0,  999.0,  999.0,  999.0,  999.0,  999.0,  999.0,  999.0,  999.0,  999.0,  999.0,  999.0,  999.0
2012/03/24 08:40,  999.0,   -0.0,    0.3,    0.1,    0.1,    0.1,    0.1,    0.1,    0.0,   -0.0,    0.0,    0.0,    0.0,   -0.0,    0.1,    0.1,    0.0,    0.1,    0.0,    0.0,    0.0,   -0.0,    0.1,   -0.2,   -0.0,   -0.3,    0.1,   -0.1,   -0.1,    0.1,    0.0,    0.2,    0.1,   -0.2,  999.0,   -0.3,  999.0,   -0.1,   -0.1,    0.1,   -0.0,    0.1,    0.0,    0.2,    0.2,   -0.2,   -0.1,  999.0,    0.2,   -0.0,   -0.1,    0.0,    0.2,   -0.1,   -0.3,    0.1,   -0.0,    0.0,  999.0,    0.2,    0.2,   -0.0,   -0.1,    0.5,  999.0,  999.0,  999.0,  999.0,  999.0,  999.0,  999.0,  999.0,  999.0,  999.0,  999.0,  999.0,  999.0,  999.0,  999.0,  999.0
2012/03/24 08:50,  999.0,    0.1,   -0.1,    0.1,    0.1,    0.2,   -0.1,    0.1,    0.0,   -0.1,   -0.0,    0.1,    0.1,    0.2,   -0.0,    0.0,   -0.0,    0.0,   -0.0,   -0.1,   -0.1,   -0.0,    0.0,    0.1,   -0.3,   -0.1,    0.1,   -0.1,   -0.0,    0.1,    0.0,   -0.0,    0.1,   -0.3,   -0.2,   -0.8,   -0.2,   -0.2,   -0.3,   -0.4,    0.0,    0.2,   -0.3,   -0.0,  999.0,   -0.2,   -0.1,   -0.2,   -0.1,   -0.0,  999.0,    0.2,   -0.2,   -0.5,   -0.0,    0.2,    0.1,    0.2,    0.3,  999.0,  999.0,   -0.0,   -0.0,   -0.0,  999.0,  999.0,  999.0,    0.2,  999.0,  999.0,  999.0,  999.0,  999.0,  999.0,  999.0,  999.0,  999.0,  999.0,  999.0,  999.0
2012/03/24 09:00,  999.0,    0.6,    0.2,    0.1,    0.0,    0.1,    0.0,    0.0,    0.1,   -0.0,    0.0,    0.1,    0.0,    0.0,    0.0,   -0.0,    0.0,    0.1,    0.0,    0.1,    0.1,   -0.1,   -0.1,    0.1,    0.0,    0.2,   -0.0,    0.0,    0.1,    0.0,    0.0,    0.0,    0.1,   -0.2,    0.0,   -0.3,    0.2,    0.0,    0.1,    0.2,    0.1,    0.0,   -0.1,   -0.1,    0.3,   -0.1,   -0.1,    0.0,   -0.3,   -0.2,    0.1,   -0.2,    0.2,   -0.2,    0.2,    0.2,    0.2,   -0.1,    0.3,    0.1,   -0.1,    0.2,    0.2,    0.2,   -0.3,    0.1,    0.2,    0.1,  999.0,  999.0,  999.0,  999.0,  999.0,  999.0,  999.0,  999.0,  999.0,  999.0,  999.0,  999.0
2012/03/24 09:10,  999.0,    0.3,    0.3,    0.0,    0.1,    0.1,    0.1,    0.1,    0.1,    0.1,    0.0,    0.1,    0.1,   -0.0,    0.0,   -0.0,   -0.0,    0.0,    0.1,   -0.0,   -0.0,   -0.1,   -0.1,   -0.3,   -0.1,   -0.1,   -0.1,    0.1,    0.1,   -0.1,   -0.1,    0.0,    0.0,   -0.2,   -0.0,   -0.2,    0.0,    0.1,    0.0,    0.3,    0.1,   -0.2,   -0.0,    0.0,   -0.0,    0.0,   -0.1,    0.3,    0.1,   -0.2,   -0.0,   -0.3,   -0.1,    0.1,    0.1,    0.2,    0.2,    0.1,    0.1,   -0.1,    0.1,    0.0,   -0.0,   -0.0,   -0.0,    0.1,    0.2,  999.0,  999.0,  999.0,  999.0,  999.0,  999.0,  999.0,  999.0,  999.0,  999.0,  999.0,  999.0,  999.0
2012/03/24 09:20,  999.0,    0.2,   -0.1,    0.2,    0.0,    0.0,   -0.1,    0.0,   -0.0,   -0.1,   -0.1,   -0.2,    0.1,    0.0,    0.1,    0.1,    0.0,    0.1,    0.0,    0.1,    0.1,   -0.0,   -0.1,   -0.2,   -0.0,   -0.1,   -0.1,    0.0,   -0.1,    0.0,    0.2,    0.1,    0.0,   -0.1,    0.0,   -0.3,    0.2,    0.1,    0.1,    0.1,    0.1,    0.1,    0.0,    0.2,    0.2,    0.0,    0.3,    0.1,  999.0,   -0.0,  999.0,    0.4,   -0.0,  999.0,    0.3,   -0.4,    0.3,    0.2,   -0.0,    0.0,  999.0,    0.1,   -0.2,  999.0,   -0.4,   -0.0,  999.0,  999.0,  999.0,  999.0,  999.0,  999.0,  999.0,  999.0,  999.0,  999.0,  999.0,  999.0,  999.0,  999.0
2012/03/24 09:30,  999.0,    0.1,    0.3,   -0.0,    0.1,    0.1,   -0.0,   -0.0,   -0.0,    0.5,    0.4,    0.0,   -0.1,   -0.0,    0.1,    0.0,    0.0,   -0.0,    0.1,    0.1,    0.0,    0.1,    0.0,   -0.1,    0.1,   -0.1,    0.0,   -0.1,   -0.0,   -0.0,   -0.1,    0.0,   -0.1,   -0.0,  999.0,    0.2,    0.0,   -0.3,    0.3,    0.1,    0.0,   -0.1,   -0.0,    0.2,   -0.1,   -0.4,   -0.0,   -0.0,    0.1,    0.2,   -0.1,  999.0,   -0.1,   -0.3,   -0.0,  999.0,   -0.2,    0.1,    0.2,  999.0,  999.0,  999.0,   -0.1,  999.0,    0.1,  999.0,  999.0,  999.0,  999.0,  999.0,  999.0,  999.0,  999.0,  999.0,  999.0,  999.0,  999.0,  999.0,  999.0,  999.0
2012/03/24 09:40,  999.0,   -0.0,    0.0,   -0.1,    0.1,   -0.1,   -0.1,    0.1,   -0.0,   -0.0,   -0.0,    0.0,    0.0,   -0.0,    0.0,    0.0,   -0.0,   -0.0,   -0.1,    0.0,    0.0,    0.0,   -0.1,   -0.1,   -0.0,    0.1,    0.0,   -0.1,    0.0,   -0.1,    0.0,   -0.0,   -0.1,    0.1,    0.3,    0.2,    0.1,    0.3,   -0.0,   -0.0,    0.1,    0.4,    0.0,    0.1,    0.0,    0.1,    0.2,   -0.4,   -0.0,    0.1,    0.2,    0.1,   -0.1,   -0.1,   -0.2,   -0.1,    0.1,   -0.0,   -0.0,    0.2,  999.0,  999.0,    0.0,   -0.3,    0.1,   -0.1,    0.3,  999.0,  999.0,  999.0,  999.0,  999.0,  999.0,  999.0,  999.0,  999.0,  999.0,  999.0,  999.0,  999.0
2012/03/24 09:50,  999.0,   -0.0,    0.4,    0.2,    0.1,    0.1,    0.2,    0.1,    0.1,    0.2,    0.3,   -0.0,    0.0,   -0.1,   -0.1,   -0.0,    0.1,    0.1,    0.0,    0.0,   -0.1,    0.1,   -0.1,   -0.0,   -0.1,   -0.1,   -0.1,   -0.1,   -0.2,    0.2,    0.0,    0.0,   -0.1,    0.2,    0.3,   -0.1,   -0.0,   -0.0,   -0.2,   -0.4,    0.3,  999.0,    0.2,    0.3,    0.1,    0.1,    0.2,    0.2,    0.4,    0.0,  999.0,    0.4,    0.1,    0.2,  999.0,  999.0,   -0.1,   -0.5,   -0.1,  999.0,  999.0,    0.4,  999.0,   -0.2,  999.0,  999.0,  999.0,  999.0,  999.0,  999.0,  999.0,  999.0,  999.0,  999.0,  999.0,  999.0,  999.0,  999.0,  999.0,  999.0
2012/03/24 10:00,  999.0,    0.1,    0.1,    0.1,    0.0,    0.0,    0.0,   -0.1,   -0.1,    0.2,    0.0,   -0.1,   -0.1,   -0.0,   -0.1,   -0.1,   -0.0,    0.1,    0.0,   -0.0,    0.1,    0.1,    0.1,   -0.1,    0.2,   -0.3,    0.0,   -0.0,    0.0,   -0.2,  999.0,  999.0,    0.0,   -0.0,    0.0,    0.1,   -0.2,    0.1,    1.6,  999.0,   -0.1,  999.0,   -0.1,    0.1,  999.0,    0.1,    0.0,    0.2,    0.5,  999.0,    0.0,  999.0,    0.2,  999.0,    0.1,    0.1,    0.1,   -0.0,  999.0,    0.0,  999.0,    0.3,  999.0,    0.3,   -0.1,  999.0,  999.0,  999.0,  999.0,  999.0,  999.0,  999.0,  999.0,  999.0,  999.0,  999.0,  999.0,  999.0,  999.0,  999.0
2012/03/24 10:10,  999.0,   -0.0,   -0.5,    0.1,   -0.0,    0.0,    0.1,    0.1,    0.0,   -0.1,    0.0,   -0.0,   -0.0,    0.1,   -0.1,   -0.1,   -0.1,   -0.1,    0.1,    0.1,   -0.1,    0.0,   -0.2,   -0.1,   -0.2,    0.1,   -0.3,  999.0,  999.0,  999.0,  999.0,  999.0,  999.0,  999.0,  999.0,   -4.2,   -3.1,   -2.7,  999.0,   -0.4,  999.0,  999.0,  999.0,  999.0,  999.0,  999.0,  999.0,    0.1,  999.0,   -0.1,  999.0,    0.1,  999.0,  999.0,  999.0,  999.0,  999.0,  999.0,  999.0,  999.0,  999.0,  999.0,  999.0,  999.0,  999.0,  999.0,  999.0,  999.0,  999.0,  999.0,  999.0,  999.0,  999.0,  999.0,  999.0,  999.0,  999.0,  999.0,  999.0,  999.0
2012/03/24 10:20,  999.0,   -0.2,    0.1,    0.1,   -0.0,    0.0,    0.1,    0.1,   -0.0,    0.0,   -0.1,   -0.1,   -0.1,   -0.1,   -0.2,    0.0,   -0.1,   -0.0,   -0.0,   -0.0,   -0.1,   -0.0,   -0.1,   -0.0,   -0.2,   -0.2,    0.1,    0.2,    0.2,  999.0,  999.0,   -0.1,  999.0,  999.0,  999.0,  999.0,  999.0,  999.0,  999.0,  999.0,  999.0,  999.0,  999.0,  999.0,  999.0,  999.0,  999.0,  999.0,  999.0,  999.0,  999.0,  999.0,  999.0,  999.0,  999.0,  999.0,  999.0,  999.0,  999.0,  999.0,  999.0,  999.0,  999.0,  999.0,  999.0,  999.0,  999.0,  999.0,  999.0,  999.0,  999.0,  999.0,  999.0,  999.0,  999.0,  999.0,  999.0,  999.0,  999.0,  999.0
2012/03/24 10:30,  999.0,   -0.0,    0.1,    0.1,   -0.1,    0.0,   -0.2,   -0.0,   -0.1,   -0.1,   -0.1,   -0.2,   -0.0,   -0.2,   -0.1,   -0.1,   -0.1,    0.0,   -0.0,    0.1,    0.1,    0.1,    0.2,    0.1,  999.0,    0.3,   -0.1,  999.0,   -0.2,    0.0,    0.3,   -0.1,  999.0,  999.0,  999.0,  999.0,  999.0,    4.2,  999.0,  999.0,  999.0,  999.0,  999.0,  999.0,  999.0,  999.0,  999.0,  999.0,  999.0,  999.0,  999.0,  999.0,  999.0,  999.0,  999.0,  999.0,  999.0,  999.0,  999.0,  999.0,  999.0,  999.0,  999.0,  999.0,  999.0,  999.0,  999.0,  999.0,  999.0,  999.0,  999.0,  999.0,  999.0,  999.0,  999.0,  999.0,  999.0,  999.0,  999.0,  999.0
2012/03/24 10:40,  999.0,  999.0,    0.0,    0.2,    0.3,    0.3,    0.7,    0.2,    0.1,   -0.1,   -0.2,    0.1,    0.1,    0.2,    0.2,   -0.2,   -0.2,  999.0,   -0.2,    0.1,    0.1,  999.0,  999.0,    0.0,    0.2,    0.2,   -0.5,  999.0,   -0.1,    0.2,    0.1,   -0.0,   -0.0,   -0.2,  999.0,   -0.1,  999.0,    0.2,  999.0,   -0.1,   -0.4,    0.0,  999.0,   -0.6,  999.0,    0.3,  999.0,  999.0,  999.0,    0.1,  999.0,  999.0,   -0.1,  999.0,  999.0,  999.0,  999.0,  999.0,  999.0,  999.0,  999.0,  999.0,  999.0,  999.0,  999.0,  999.0,  999.0,  999.0,  999.0,  999.0,  999.0,  999.0,  999.0,  999.0,  999.0,  999.0,  999.0,  999.0,  999.0,  999.0
2012/03/24 10:50,  999.0,   -0.3,    0.2,    0.0,   -0.1,    0.0,    0.5,    0.4,    0.2,    0.3,    0.2,    0.0,   -0.0,   -0.2,   -0.1,   -0.0,    0.3,    0.4,   -0.1,   -0.0,   -0.1,   -0.2,  999.0,    0.3,   -0.3,   -0.0,   -0.1,   -0.1,   -0.0,   -0.5,   -0.1,   -0.1,    0.0,  999.0,    0.2,  999.0,  999.0,  999.0,  999.0,  999.0,  999.0,    0.7,    0.1,  999.0,   -0.3,  999.0,  999.0,  999.0,  999.0,  999.0,  999.0,  999.0,  999.0,  999.0,  999.0,  999.0,   -0.1,  999.0,  999.0,  999.0,  999.0,  999.0,  999.0,  999.0,  999.0,  999.0,  999.0,  999.0,  999.0,  999.0,  999.0,  999.0,  999.0,  999.0,  999.0,  999.0,  999.0,  999.0,  999.0,  999.0
2012/03/24 11:00,  999.0,   -0.8,   -0.5,    0.3,    0.3,    0.2,    0.4,   -0.0,   -0.2,   -0.0,    0.1,    0.3,    0.3,    0.1,    0.0,    0.0,    0.1,    0.3,    0.1,    0.1,   -0.0,    0.0,   -0.1,    0.1,   -0.2,  999.0,  999.0,   -0.2,  999.0,  999.0,    0.2,   -0.3,   -0.3,   -0.2,  999.0,  999.0,  999.0,  999.0,  999.0,  999.0,  999.0,  999.0,  999.0,  999.0,  999.0,  999.0,  999.0,  999.0,  999.0,  999.0,  999.0,  999.0,  999.0,  999.0,  999.0,   -0.1,  999.0,  999.0,  999.0,  999.0,  999.0,  999.0,  999.0,  999.0,  999.0,  999.0,  999.0,  999.0,  999.0,  999.0,  999.0,  999.0,  999.0,  999.0,  999.0,  999.0,  999.0,  999.0,  999.0,  999.0
2012/03/24 11:10,  999.0,   -0.1,   -0.6,    0.3,    0.4,    0.1,   -0.0,    0.1,    0.1,    0.1,   -0.2,   -0.3,    0.3,   -0.1,   -0.2,   -0.1,   -0.4,  999.0,    0.0,   -0.2,  999.0,    0.5,  999.0,  999.0,    0.2,    0.1,    0.5,    0.2,    0.0,  999.0,    0.1,   -0.5,   -0.0,  999.0,  999.0,    0.0,   -0.1,  999.0,   -0.1,  999.0,  999.0,  999.0,  999.0,  999.0,  999.0,  999.0,  999.0,    0.1,  999.0,  999.0,  999.0,  999.0,  999.0,  999.0,  999.0,    0.1,   -0.4,  999.0,  999.0,  999.0,   -0.7,   -0.6,   -0.2,  999.0,    0.0,  999.0,  999.0,  999.0,  999.0,  999.0,  999.0,  999.0,  999.0,  999.0,  999.0,  999.0,  999.0,  999.0,  999.0,  999.0
2012/03/24 11:20,  999.0,   -0.1,   -0.2,    0.2,    0.2,   -0.1,    0.7,    0.5,    0.2,    0.9,   -0.8,   -1.8,   -0.8,    0.4,   -0.6,   -0.0,   -0.6,  999.0,  999.0,  999.0,   -0.8,    0.9,    0.4,   -0.4,   -0.1,   -0.2,    0.3,    0.1,   -0.1,  999.0,  999.0,    0.1,  999.0,  999.0,  999.0,    0.1,   -0.1,   -0.2,  999.0,  999.0,  999.0,  999.0,  999.0,  999.0,  999.0,  999.0,  999.0,   -0.1,  999.0,  999.0,  999.0,  999.0,  999.0,    0.2,  999.0,  999.0,   -0.4,    0.4,    0.1,  999.0,    0.3,    0.3,    0.1,    0.0,    0.1,   -0.0,  999.0,   -0.0,    0.0,  999.0,  999.0,  999.0,  999.0,  999.0,  999.0,  999.0,  999.0,  999.0,  999.0,  999.0
2012/03/24 11:30,  999.0,    0.1,   -0.1,    0.3,    0.2,    0.1,   -0.6,   -0.5,    0.3,    0.1,    0.2,   -0.6,   -0.5,   -0.3,   -0.2,  999.0,    0.7,  999.0,    0.2,  999.0,    0.7,  999.0,    0.1,   -0.2,   -0.3,    0.2,  999.0,  999.0,    0.2,  999.0,   -0.3,   -0.0,  999.0,  999.0,  999.0,    0.3,   -0.0,  999.0,  999.0,  999.0,  999.0,  999.0,  999.0,  999.0,  999.0,  999.0,  999.0,  999.0,  999.0,  999.0,   -0.2,  999.0,  999.0,  999.0,   -0.0,    0.1,    0.3,   -0.1,   -0.1,   -0.2,    0.0,   -0.2,   -0.0,   -0.0,   -0.2,   -0.1,   -0.1,    0.1,    0.0,  999.0,  999.0,  999.0,  999.0,  999.0,  999.0,  999.0,  999.0,  999.0,  999.0,  999.0
2012/03/24 11:40,  999.0,   -0.2,   -0.1,    0.0,    0.3,   -0.1,    0.1,   -0.1,    0.0,    0.4,    0.3,    0.3,  999.0,   -0.5,   -1.0,    0.1,    0.6,  999.0,    1.5,    0.6,  999.0,    0.6,    0.4,   -0.1,    0.0,    0.0,   -0.1,   -0.3,   -0.0,    0.1,    0.4,    0.2,   -0.1,   -0.4,   -0.2,   -0.2,   -0.0,   -0.4,    0.1,    0.0,  999.0,    0.1,    0.7,    0.9,    0.9,   -0.2,   -0.2,   -0.2,    0.0,   -0.2,   -0.1,   -0.2,    0.1,   -0.1,    0.0,   -0.0,   -0.1,   -0.1,    0.1,    0.1,    0.1,   -0.1,    0.1,    0.1,   -0.0,    0.1,   -0.0,    0.1,    0.1,  999.0,  999.0,  999.0,  999.0,  999.0,  999.0,  999.0,  999.0,  999.0,  999.0,  999.0
2012/03/24 11:50,  999.0,   -0.1,    0.2,    0.3,    0.1,   -0.1,    0.0,    0.1,    0.3,    0.2,    0.4,    2.0,    0.4,    1.3,    2.3,    0.9,    1.5,  999.0,    2.5,    0.7,   -0.0,   -0.0,   -0.1,   -0.1,    0.1,   -0.1,   -0.0,   -0.0,    0.2,   -0.1,    0.0,    0.1,    0.0,   -0.0,  999.0,    0.6,  999.0,  999.0,   -0.2,  999.0,   -0.1,   -0.2,   -0.0,   -0.0,   -0.1,    0.1,    0.1,   -0.1,   -0.0,    0.1,   -0.2,   -0.1,    0.0,   -0.1,   -0.0,    0.2,   -0.3,   -0.1,   -0.1,   -0.0,    0.1,    0.1,    0.1,    0.1,    0.1,    0.0,   -0.2,   -0.1,   -0.2,  999.0,  999.0,  999.0,  999.0,  999.0,  999.0,  999.0,  999.0,  999.0,  999.0,  999.0
2012/03/24 12:00,  999.0,   -0.1,   -0.1,    0.5,    0.2,    0.0,    0.2,    0.1,    0.0,    0.0,    0.1,   -0.0,    0.0,   -0.1,   -0.1,   -0.2,   -0.1,    0.1,    0.3,    0.2,    0.4,    0.5,    0.3,    0.1,   -0.1,   -0.2,    0.3,    0.0,   -0.0,    0.1,    0.0,    0.0,    0.0,   -0.4,  999.0,   -0.1,   -0.1,    0.1,   -0.0,   -0.1,   -0.1,   -0.6,   -0.5,   -0.4,   -0.2,   -0.3,   -0.2,   -0.1,   -0.0,    0.0,    0.0,   -0.1,    0.1,    0.0,    0.0,    0.3,    0.2,    0.1,   -0.2,   -0.1,   -0.1,   -0.1,   -0.0,    0.0,   -0.0,   -0.0,    0.0,   -0.1,    0.1,   -0.0,  999.0,  999.0,  999.0,  999.0,  999.0,  999.0,  999.0,  999.0,  999.0,  999.0
2012/03/24 12:10,  999.0,    0.4,   -0.1,    0.1,    0.0,   -0.1,   -0.0,    0.0,    0.0,   -0.1,   -0.3,   -0.1,   -0.1,    0.3,    0.2,    0.1,    0.1,    0.5,    0.5,    0.9,    1.3,    1.6,    2.0,    0.5,   -0.0,   -0.2,   -0.1,   -0.1,    0.0,    0.1,   -0.3,   -0.0,    0.0,  999.0,    0.1,    0.3,    0.1,    0.0,    0.1,   -0.1,   -0.1,   -0.4,   -0.2,   -0.3,   -0.1,    0.0,   -0.2,   -0.1,   -0.1,    0.1,    0.0,    0.1,    0.1,    0.1,    0.0,    0.0,   -0.1,    0.1,   -0.1,    0.1,   -0.0,   -0.1,    0.0,    0.1,   -0.1,   -0.0,   -0.0,   -0.0,    0.1,    0.0,  999.0,  999.0,  999.0,  999.0,  999.0,  999.0,  999.0,  999.0,  999.0,  999.0
2012/03/24 12:20,  999.0,   -0.0,    0.0,    0.1,    0.1,   -0.1,    0.1,   -0.4,   -0.5,   -0.6,   -0.5,   -0.4,    0.2,    0.4,    0.5,    0.0,    0.5,    0.0,    0.1,    0.2,    0.6,    1.2,    0.6,    0.1,   -0.1,   -0.3,   -0.2,   -0.2,    0.0,    0.1,    0.0,   -0.3,   -0.2,    0.1,   -0.3,    0.1,   -0.0,   -0.1,    0.2,    0.1,    0.1,   -0.1,    0.1,    0.2,    0.0,   -0.0,    0.1,    0.1,   -0.0,   -0.0,   -0.0,    0.0,   -0.0,   -0.0,   -0.0,   -0.1,   -0.1,   -0.1,    0.0,    0.0,   -0.0,   -0.0,    0.0,    0.1,    0.1,    0.1,   -0.0,    0.0,    0.0,  999.0,  999.0,  999.0,  999.0,  999.0,  999.0,  999.0,  999.0,  999.0,  999.0,  999.0
2012/03/24 12:30,  999.0,   -0.1,    0.1,   -0.1,   -0.1,    0.2,    0.1,    0.1,    0.2,   -0.6,   -0.0,    0.3,    0.2,    0.2,    0.2,    0.3,    0.3,    0.2,    0.5,    0.0,    0.7,    0.6,    0.9,    0.3,    0.2,    0.0,    0.1,    0.0,   -0.1,   -0.1,   -0.0,   -0.1,   -0.4,   -0.2,   -0.1,   -0.0,   -0.2,   -0.3,   -0.2,    0.3,   -0.0,    0.1,    0.1,   -0.1,    0.2,    0.1,   -0.1,   -0.2,   -0.3,    0.1,    0.2,    0.0,   -0.1,    0.0,    0.2,    0.0,    0.0,    0.0,    0.0,    0.1,    0.1,    0.1,    0.1,   -0.0,   -0.0,   -0.1,    0.0,   -0.1,   -0.0,    0.0,  999.0,  999.0,   -0.0,  999.0,  999.0,  999.0,  999.0,  999.0,  999.0,  999.0
2012/03/24 12:40,  999.0,   -0.0,   -0.4,    0.1,   -0.1,    0.2,   -0.3,   -0.0,    0.1,    0.1,    0.3,    0.2,    0.1,    0.7,    0.7,   -0.3,    0.2,    0.2,    0.4,    0.4,    0.3,    1.0,    1.5,    1.5,    1.4,    0.6,    0.4,    0.2,   -0.0,    0.1,   -0.2,    0.1,    0.0,   -0.4,    0.2,   -0.2,    0.2,   -0.0,   -0.3,   -0.2,   -0.2,   -0.0,   -0.0,   -0.3,   -0.1,    0.1,    0.3,    0.4,    0.1,    0.2,    0.2,   -0.0,    0.1,    0.0,    0.1,    0.0,   -0.1,    0.1,   -0.0,   -0.0,    0.1,   -0.2,   -0.1,   -0.0,    0.2,   -0.1,   -0.0,   -0.0,    0.0,  999.0,  999.0,  999.0,    0.3,  999.0,  999.0,  999.0,  999.0,  999.0,  999.0,  999.0
2012/03/24 12:50,  999.0,   -0.1,   -0.7,   -0.2,    0.4,   -0.2,    0.2,   -0.3,   -0.4,   -0.1,   -0.1,   -0.4,   -0.3,   -0.2,   -0.1,   -0.1,   -0.5,    0.1,    0.5,    0.4,    0.7,    0.7,    0.6,    0.9,    0.4,    0.9,    1.0,    0.3,    0.3,    0.4,   -0.1,   -0.1,   -0.1,    0.3,    0.1,   -0.1,  999.0,    0.3,    0.2,    0.1,    0.3,    0.1,   -0.0,   -0.1,   -0.1,    0.1,   -0.1,    0.1,   -0.0,    0.0,    0.0,    0.2,   -0.1,   -0.2,   -0.0,    0.0,   -0.2,   -0.0,    0.0,   -0.2,   -0.0,    0.0,    0.0,    0.1,    0.0,   -0.0,    0.1,   -0.0,   -0.1,    0.0,  999.0,   -0.0,  999.0,    0.2,  999.0,  999.0,  999.0,  999.0,  999.0,  999.0
2012/03/24 13:00,  999.0,    0.2,   -0.1,    0.2,    0.0,    0.0,   -0.6,   -0.1,   -0.1,    0.1,   -0.3,   -0.0,    0.3,    0.7,    0.1,   -0.0,    0.1,    0.2,    0.1,    0.3,    1.2,    1.8,    2.0,    1.0,    0.6,    0.5,    0.2,    0.2,   -0.0,    0.1,    0.2,    0.1,   -0.1,    0.0,    0.0,    0.1,    0.4,    0.3,    0.3,    0.0,    0.0,   -0.2,    0.0,    0.1,   -0.1,   -0.0,    0.0,    0.1,    0.1,    0.3,    0.4,    0.2,   -0.1,    0.0,    0.1,    0.2,   -0.0,    0.1,   -0.0,   -0.0,   -0.1,   -0.0,   -0.0,    0.0,    0.1,    0.0,   -0.0,    0.1,    0.1,    0.0,  999.0,    0.5,  999.0,  999.0,  999.0,  999.0,  999.0,  999.0,  999.0,  999.0
2012/03/24 13:10,  999.0,   -0.0,   -0.5,    0.0,    0.4,    0.0,   -0.1,   -0.0,    0.0,   -0.2,   -0.2,    0.0,    0.2,    0.2,    0.1,    0.3,    0.1,    0.1,    0.3,    0.4,    0.4,    1.1,    1.0,    1.4,    0.9,    0.6,    0.4,   -0.1,    0.1,    0.1,    0.3,    0.0,   -0.0,   -0.2,   -0.1,   -0.2,  999.0,   -0.2,   -0.1,   -0.1,   -0.1,    0.1,    0.1,   -0.0,    0.0,    0.0,    0.1,    0.2,    0.1,   -0.1,   -0.1,   -0.2,   -0.1,    0.1,    0.2,    0.1,   -0.0,    0.1,    0.0,   -0.1,    0.0,    0.0,   -0.2,   -0.1,   -0.1,    0.1,   -0.1,   -0.0,    0.1,    0.1,  999.0,    0.2,    0.1,   -0.1,  999.0,  999.0,  999.0,  999.0,  999.0,  999.0
2012/03/24 13:20,  999.0,    0.1,   -0.2,   -0.3,   -0.8,   -0.4,   -0.1,    0.1,    0.5,   -0.1,   -0.0,    0.1,    0.0,   -0.1,   -0.1,    0.0,    0.1,    0.1,    0.1,    0.2,    0.4,    0.5,    1.2,    1.2,    0.9,    0.6,    0.5,    0.1,    0.1,   -0.0,   -0.1,   -0.0,   -0.0,    0.1,   -0.1,    0.1,   -0.0,    0.0,   -0.1,    0.1,    0.0,    0.1,   -0.1,   -0.1,   -0.0,   -0.1,    0.1,   -0.0,    0.0,   -0.1,   -0.1,    0.1,    0.1,    0.1,    0.3,   -0.0,    0.2,    0.0,    0.1,    0.0,    0.0,    0.0,    0.0,   -0.1,   -0.1,   -0.0,    0.1,    0.1,    0.2,   -0.1,    0.0,    0.7,    0.1,  999.0,  999.0,  999.0,  999.0,  999.0,  999.0,  999.0
2012/03/24 13:30,  999.0,   -0.2,   -0.2,   -0.1,   -0.1,   -0.1,    0.1,   -0.1,    0.1,    0.0,    0.1,   -0.0,    0.0,    0.1,    0.0,   -0.0,    0.0,    0.0,    0.0,   -0.0,    0.1,    0.1,    0.0,    0.1,    0.2,    0.4,    0.4,    0.1,    0.2,    0.1,    0.2,   -0.1,    0.0,   -0.1,   -0.1,   -0.1,   -0.2,   -0.2,    0.0,    0.0,    0.2,    0.1,    0.1,   -0.4,   -0.1,    0.1,    0.1,    0.1,   -0.1,   -0.0,    0.0,    0.1,   -0.0,   -0.0,    0.1,   -0.0,   -0.2,   -0.1,   -0.0,   -0.0,   -0.1,    0.1,   -0.1,    0.2,    0.1,   -0.0,   -0.0,   -0.1,   -0.1,    0.1,  999.0,  999.0,    0.0,   -0.0,  999.0,  999.0,  999.0,  999.0,  999.0,  999.0
2012/03/24 13:40,  999.0,    0.0,   -0.1,   -0.1,    0.1,    0.1,    0.2,   -0.1,   -0.2,   -0.0,    0.2,   -0.0,    0.0,   -0.0,   -0.1,    0.1,    0.1,    0.1,    0.1,    0.0,    0.1,    0.1,   -0.1,    0.1,   -0.0,    0.2,    0.4,    0.2,    0.1,    0.0,    0.1,   -0.1,    0.1,    0.2,   -0.1,   -0.2,    0.1,    0.6,    0.0,   -0.2,   -0.0,   -0.3,   -0.1,   -0.0,   -0.1,   -0.1,    0.0,    0.1,    0.1,   -0.1,    0.1,    0.1,    0.0,   -0.0,    0.0,    0.2,   -0.0,    0.0,   -0.1,   -0.0,    0.0,   -0.1,   -0.1,   -0.1,   -0.0,   -0.0,    0.0,   -0.1,   -0.1,    0.0,  999.0,   -0.2,   -0.0,  999.0,  999.0,  999.0,  999.0,  999.0,  999.0,  999.0
2012/03/24 13:50,  999.0,   -0.1,   -0.1,    0.0,   -0.0,   -0.1,    0.0,    0.1,    0.1,    0.1,    0.1,    0.2,    0.2,    0.2,    0.2,    0.3,    0.4,    0.3,    0.3,    0.1,   -0.0,    0.1,   -0.5,   -0.3,   -0.1,   -0.2,   -0.0,   -0.1,   -0.2,   -0.1,    0.1,   -0.2,   -0.3,   -0.2,   -0.1,   -0.1,   -0.0,   -0.1,   -0.1,   -0.1,   -0.3,   -0.3,    0.0,   -0.1,   -0.1,   -0.0,    0.1,   -0.1,   -0.1,   -0.0,    0.1,   -0.1,   -0.1,    0.2,    0.0,   -0.0,    0.1,    0.1,   -0.0,    0.1,    0.0,   -0.1,   -0.1,    0.1,    0.0,    0.2,    0.0,   -0.1,   -0.0,   -0.3,  999.0,    0.1,    0.1,    0.1,  999.0,  999.0,  999.0,  999.0,  999.0,  999.0
2012/03/24 14:00,  999.0,    0.1,    0.0,    0.4,    0.0,    0.1,    0.2,  999.0,   -0.0,    0.2,    0.1,    0.2,    0.3,    0.5,    0.5,    0.4,    0.2,    0.1,    0.1,   -0.1,   -0.0,   -0.0,   -0.4,   -0.2,   -0.2,   -0.1,   -0.1,   -0.0,    0.0,    0.1,    0.0,    0.2,   -0.1,   -0.1,   -0.3,   -0.1,   -0.0,   -0.0,    0.0,    0.0,   -0.1,   -0.1,   -0.0,    0.0,   -0.1,    0.0,    0.1,    0.0,    0.1,   -0.0,   -0.1,    0.1,    0.0,    0.0,    0.0,   -0.0,    0.0,   -0.0,    0.0,    0.0,    0.0,    0.1,   -0.1,   -0.0,    0.1,   -0.0,   -0.0,   -0.0,    0.1,    0.1,  999.0,    0.2,    0.1,  999.0,  999.0,  999.0,  999.0,  999.0,  999.0,  999.0
2012/03/24 14:10,  999.0,  999.0,   -0.1,   -0.1,    0.1,   -0.1,    0.1,    0.0,    0.1,    0.2,    0.2,    0.4,    0.1,    0.0,   -0.0,    0.0,   -0.1,   -0.2,    0.0,   -0.2,   -0.1,   -0.2,   -0.2,    0.0,   -0.1,   -0.2,    0.1,    0.0,    0.1,   -0.1,    0.1,    0.1,   -0.1,    0.0,   -0.1,   -0.1,    0.3,    0.0,    0.0,   -0.2,   -0.1,   -0.1,   -0.0,    0.1,   -0.1,   -0.1,    0.1,    0.1,   -0.1,   -0.0,   -0.0,   -0.1,   -0.1,   -0.2,    0.0,    0.1,    0.1,    0.0,   -0.0,    0.1,    0.1,   -0.0,   -0.0,   -0.0,   -0.1,   -0.1,   -0.0,   -0.1,   -0.1,   -0.0,   -0.0,   -0.2,    0.1,    0.0,  999.0,  999.0,  999.0,  999.0,  999.0,  999.0
2012/03/24 14:20,  999.0,   -0.0,    0.1,    0.1,   -0.0,    0.1,    0.3,    0.3,    0.2,    0.4,    0.3,    0.4,    0.2,    0.2,    0.1,    0.1,   -0.1,   -0.0,    0.1,    0.0,   -0.1,   -0.2,   -0.0,    0.0,    0.0,   -0.0,   -0.0,    0.0,   -0.0,    0.1,   -0.1,    0.0,    0.0,    0.0,    0.0,    0.0,   -0.1,   -0.0,   -0.1,    0.1,   -0.1,    0.0,   -0.0,   -0.0,   -0.0,   -0.1,   -0.0,    0.1,   -0.1,   -0.0,   -0.1,    0.0,    0.1,    0.1,    0.0,   -0.1,   -0.0,    0.0,    0.0,   -0.0,   -0.0,    0.0,   -0.0,   -0.1,   -0.1,   -0.1,    0.0,    0.1,    0.0,   -0.1,    0.1,   -0.0,    0.1,    0.2,  999.0,  999.0,  999.0,  999.0,  999.0,  999.0
2012/03/24 14:30,  999.0,   -0.1,    0.0,    0.1,   -0.0,   -0.0,   -0.1,  999.0,   -0.1,    0.0,   -0.0,    0.3,  999.0,    0.2,   -0.1,   -0.0,    0.0,    0.0,   -0.0,    0.3,    0.2,    0.2,   -0.0,    0.2,    0.2,    0.0,   -0.1,   -0.1,   -0.0,   -0.1,    0.1,   -0.0,   -0.1,    0.0,   -0.1,    0.1,    0.1,   -0.1,   -0.1,   -0.1,   -0.2,    0.0,    0.1,    0.0,   -0.0,    0.2,    0.0,    0.1,   -0.1,    0.1,    0.1,    0.0,   -0.0,    0.0,    0.1,   -0.1,    0.1,    0.2,    0.0,    0.0,   -0.0,   -0.0,    0.0,   -0.0,    0.0,   -0.0,    0.0,   -0.0,   -0.1,   -0.0,   -0.0,    0.1,   -0.0,   -0.0,  999.0,  999.0,  999.0,  999.0,  999.0,  999.0
2012/03/24 14:40,  999.0,    0.0,    0.0,   -0.0,   -0.1,    0.0,    0.2,    0.3,    0.2,    0.1,    0.1,    0.3,  999.0,    0.2,    0.1,    0.1,  999.0,    0.1,    0.3,    0.2,    0.2,    0.2,    0.2,    0.3,    0.1,    0.1,    0.0,   -0.2,   -0.0,    0.0,   -0.0,   -0.1,   -0.2,   -0.2,   -0.0,   -0.1,    0.1,    0.0,   -0.1,    0.1,   -0.2,   -0.2,   -0.0,   -0.2,   -0.1,    0.2,    0.1,    0.1,    0.2,   -0.1,   -0.0,   -0.0,   -0.0,    0.0,    0.1,    0.1,   -0.1,   -0.0,   -0.1,    0.0,    0.0,   -0.0,   -0.0,    0.1,   -0.0,    0.0,    0.0,   -0.0,   -0.0,    0.1,   -0.3,   -0.1,   -0.2,    0.2,    0.0,  999.0,  999.0,  999.0,  999.0,  999.0
2012/03/24 14:50,  999.0,  999.0,   -0.1,   -0.0,   -0.0,   -0.1,    0.1,  999.0,    0.3,   -0.0,    0.0,    0.4,    0.1,    0.2,    0.5,    0.2,    0.3,    0.3,    0.4,    0.3,    0.3,    0.1,    0.1,    0.2,    0.2,    0.2,    0.1,   -0.1,   -0.1,    0.0,   -0.1,    0.1,   -0.0,    0.1,    0.3,   -0.1,    0.0,    0.0,    0.1,   -0.1,   -0.2,   -0.1,    0.0,   -0.1,    0.1,    0.1,    0.0,    0.0,    0.0,   -0.2,   -0.0,   -0.2,   -0.2,    0.0,    0.1,   -0.0,   -0.1,    0.1,   -0.1,    0.1,    0.1,    0.1,   -0.1,    0.0,    0.1,   -0.0,   -0.0,   -0.0,   -0.2,  999.0,    0.1,   -0.2,    0.4,  999.0,    0.1,  999.0,  999.0,  999.0,  999.0,  999.0
2012/03/24 15:00,  999.0,    0.1,   -0.1,   -0.1,   -0.0,    0.1,   -0.1,  999.0,    0.1,   -0.0,   -0.0,  999.0,  999.0,    0.2,    0.1,    0.2,    0.1,    0.1,    0.3,    0.3,    0.2,    0.3,    0.4,    0.3,    0.1,   -0.0,    0.2,    0.2,   -0.0,    0.2,   -0.1,    0.0,   -0.0,   -0.0,   -0.1,   -0.0,    0.1,    0.1,   -0.1,   -0.0,   -0.3,   -0.1,    0.3,    0.1,    0.0,   -0.0,    0.1,   -0.2,   -0.1,    0.1,    0.0,    0.1,   -0.0,   -0.1,    0.0,   -0.1,   -0.1,   -0.1,   -0.0,    0.0,    0.0,   -0.0,    0.1,   -0.1,  999.0,   -0.1,   -0.1,   -0.1,   -0.0,    0.1,  999.0,  999.0,   -0.1,  999.0,   -0.2,  999.0,  999.0,  999.0,  999.0,  999.0
2012/03/24 15:10,  999.0,  999.0,    0.0,    0.0,    0.0,   -0.0,   -0.1,  999.0,    0.0,    0.1,    0.0,  999.0,   -0.2,    0.1,   -0.1,    0.0,   -0.0,    0.0,    0.1,    0.3,    0.3,    0.2,    0.1,    0.1,    0.2,    0.1,    0.2,    0.2,   -0.0,    0.1,   -0.0,   -0.1,    0.0,   -0.0,    0.1,   -0.0,   -0.0,   -0.2,    0.0,    0.1,   -0.2,   -0.0,    0.1,    0.2,    0.1,    0.1,    0.1,    0.1,    0.1,    0.1,    0.1,    0.0,    0.0,    0.0,   -0.0,   -0.1,    0.0,   -0.1,    0.1,   -0.0,   -0.1,    0.1,   -0.1,   -0.0,   -0.0,   -0.0,   -0.0,   -0.0,   -0.0,   -0.0,  999.0,   -0.3,    0.2,  999.0,   -0.0,  999.0,  999.0,  999.0,  999.0,  999.0
2012/03/24 15:20,  999.0,   -0.1,   -0.1,   -0.1,   -0.1,    0.2,    0.1,    0.0,  999.0,   -0.1,    0.1,    0.1,  999.0,    0.2,    0.2,    0.1,    0.4,    0.2,    0.2,    0.1,    0.4,    0.5,    0.4,    0.1,   -0.1,    0.1,    0.1,    0.2,    0.2,    0.2,   -0.0,    0.2,    0.1,    0.1,   -0.0,   -0.1,   -0.1,    0.0,    0.1,   -0.1,   -0.1,    0.0,    0.0,    0.1,    0.0,   -0.1,   -0.1,   -0.1,   -0.0,   -0.0,    0.2,    0.3,    0.2,   -0.1,   -0.0,   -0.1,    0.0,   -0.1,    0.0,    0.0,    0.0,    0.1,    0.0,    0.0,    0.0,    0.1,    0.0,    0.1,   -0.1,   -0.2,  999.0,    0.3,    0.1,   -0.1,   -0.0,  999.0,  999.0,  999.0,  999.0,  999.0
2012/03/24 15:30,  999.0,   -0.0,    0.1,    0.1,   -0.0,   -0.1,   -0.0,   -0.1,  999.0,    0.2,    0.1,    0.2,    0.3,   -0.1,   -0.1,  999.0,    0.1,    0.0,  999.0,   -0.1,   -0.0,    0.1,    0.1,    0.1,    0.1,    0.3,    0.1,    0.1,    0.3,    0.1,    0.2,    0.1,    0.0,   -0.1,   -0.0,   -0.1,    0.1,   -0.1,    0.1,    0.2,   -0.0,    0.0,   -0.0,    0.1,   -0.1,    0.0,   -0.0,   -0.0,    0.1,    0.1,    0.2,    0.2,   -0.1,   -0.0,   -0.0,   -0.1,    0.1,    0.0,    0.0,    0.0,    0.1,    0.1,    0.2,    0.1,    0.1,   -0.1,    0.3,   -0.0,    0.1,    0.2,    0.4,   -0.4,    0.0,  999.0,    0.2,  999.0,  999.0,  999.0,  999.0,  999.0
2012/03/24 15:40,  999.0,    0.1,    0.0,   -0.2,   -0.1,    0.0,    0.1,    0.1,   -0.1,   -0.1,    0.1,    0.2,    0.1,   -0.1,   -0.2,   -0.0,  999.0,   -0.1,   -0.0,  999.0,    0.1,    0.1,    0.1,   -0.1,   -0.0,    0.4,    0.3,   -0.0,    0.0,   -0.1,   -0.0,   -0.1,   -0.1,   -0.1,    0.0,   -0.0,   -0.1,   -0.0,    0.0,    0.1,   -0.2,   -0.1,    0.2,   -0.0,    0.1,   -0.1,   -0.2,   -0.1,   -0.0,   -0.3,   -0.2,   -0.0,    0.1,    0.0,   -0.0,   -0.0,   -0.1,   -0.1,   -0.0,   -0.1,    0.0,    0.1,   -0.0,    0.0,   -0.0,   -0.1,   -0.1,   -0.1,  999.0,    0.3,    0.2,   -0.0,  999.0,  999.0,    0.2,  999.0,  999.0,  999.0,  999.0,  999.0
2012/03/24 15:50,  999.0,    0.0,   -0.1,   -0.1,   -0.0,   -0.3,   -0.3,   -0.0,   -0.1,   -0.0,   -0.1,    0.1,    0.2,    0.1,   -0.1,   -0.1,    0.1,   -0.1,   -0.0,   -0.0,   -0.2,   -0.0,    0.0,   -0.0,   -0.2,   -0.1,   -0.2,   -0.1,   -0.1,   -0.1,   -0.0,   -0.1,    0.1,   -0.1,    0.1,    0.2,    0.1,    0.1,    0.1,    0.0,   -0.2,   -0.3,    0.0,    0.2,    0.1,    0.1,    0.0,   -0.0,   -0.1,   -0.0,   -0.0,   -0.1,    0.1,   -0.1,    0.1,    0.1,   -0.1,    0.1,    0.1,    0.2,   -0.1,   -0.3,  999.0,    0.0,    0.1,   -0.1,   -0.3,  999.0,   -0.2,    0.1,    0.3,  999.0,   -0.4,  999.0,    0.0,   -0.2,  999.0,  999.0,  999.0,  999.0
2012/03/24 16:00,  999.0,   -0.1,   -0.3,    0.1,   -0.0,   -0.0,    0.0,   -0.1,    0.0,   -0.0,    0.2,   -0.0,   -0.1,   -0.2,   -0.1,   -0.1,   -0.1,    0.1,    2.4,    1.8,   -0.3,    2.0,    1.9,    1.2,    0.2,    0.0,   -0.9,   -0.2,   -0.2,   -0.2,   -0.1,    0.2,    0.1,   -0.1,  999.0,   -0.2,    0.1,   -0.1,   -0.0,    0.0,   -0.6,   -0.3,    0.1,    0.1,   -0.0,   -0.1,   -0.1,   -0.3,   -0.1,   -0.1,   -0.3,   -0.1,   -0.1,   -0.0,   -0.1,   -0.2,    0.2,    0.0,    0.1,    0.3,    0.1,    0.5,    0.1,  999.0,   -0.1,   -0.1,   -0.2,  999.0,   -0.1,   -0.1,  999.0,  999.0,  999.0,  999.0,  999.0,  999.0,  999.0,  999.0,  999.0,  999.0
2012/03/24 16:10,  999.0,   -0.0,   -0.4,   -0.0,    0.2,    0.0,  999.0,    0.5,    0.4,   -0.1,    1.8,  999.0,    7.0,    4.4,    8.0,    4.2,    4.8,    6.9,    7.2,  999.0,   10.2,    6.7,  999.0,   10.5,  999.0,   13.3,    7.2,    6.1,    6.6,  999.0,    0.2,    0.5,    0.3,    0.0,   -0.1,    0.2,    0.2,  999.0,   -0.1,    0.1,    0.1,    0.1,   -0.1,   -0.1,   -0.0,    0.1,    0.1,    0.0,   -0.0,    0.0,   -0.4,  999.0,    0.3,    0.3,    0.0,    0.0,   -0.0,    0.1,    0.1,    0.0,  999.0,    0.3,    0.1,    0.4,   -0.1,   -0.1,  999.0,   -0.8,   -0.2,    0.2,  999.0,  999.0,    0.5,    0.4,  999.0,  999.0,  999.0,  999.0,  999.0,  999.0
2012/03/24 16:20,  999.0,   -0.2,   -0.5,  999.0,   -0.1,    0.1,   -1.0,  999.0,  999.0,  999.0,   10.4,    7.8,    9.3,    9.5,    7.1,    6.1,    9.2,   15.4,   10.7,   13.3,   17.4,   14.4,   12.7,   13.7,   14.7,   17.0,   16.6,  999.0,  999.0,  999.0,  999.0,  999.0,  999.0,  999.0,  999.0,  999.0,  999.0,  999.0,    0.3,    0.5,   -0.4,   -0.4,   -0.3,   -0.5,   -0.3,  999.0,   -0.1,  999.0,  999.0,    0.2,   -0.0,  999.0,    0.1,   -0.0,   -0.4,    0.1,    0.1,  999.0,    0.3,    0.1,    0.3,    0.2,  999.0,   -0.1,   -0.0,   -0.1,    0.0,  999.0,  999.0,  999.0,  999.0,   -0.1,   -0.3,  999.0,  999.0,  999.0,  999.0,  999.0,  999.0,  999.0
2012/03/24 16:30,  999.0,  999.0,  999.0,  999.0,  999.0,  999.0,  999.0,  999.0,  999.0,   -1.2,   -0.8,    1.7,    3.3,    1.7,    3.3,    2.6,    5.2,    5.0,    5.0,  999.0,  999.0,    9.4,  999.0,  999.0,  999.0,  999.0,  999.0,  999.0,  999.0,  999.0,    0.2,   -0.3,  999.0,  999.0,  999.0,  999.0,  999.0,  999.0,  999.0,    0.3,  999.0,  999.0,   -0.1,  999.0,  999.0,  999.0,    0.3,  999.0,  999.0,  999.0,  999.0,    0.1,   -0.1,    0.3,    0.0,   -0.2,    0.2,   -0.0,    0.2,    0.0,    0.1,  999.0,  999.0,   -0.3,   -0.2,   -0.0,    0.2,  999.0,  999.0,  999.0,  999.0,  999.0,  999.0,  999.0,  999.0,  999.0,  999.0,  999.0,  999.0,  999.0
2012/03/24 16:40,  999.0,  999.0,  999.0,  999.0,   -0.3,  999.0,   -0.3,  999.0,  999.0,  999.0,    2.2,    3.3,    2.3,    3.4,    3.1,    2.7,  999.0,   -0.9,   -0.7,   -0.1,   -0.1,  999.0,  999.0,    5.5,    4.5,  999.0,   -0.5,    0.6,    0.4,    0.4,   -0.1,   -0.2,  999.0,  999.0,  999.0,   -0.2,  999.0,    0.4,  999.0,    0.0,   -0.5,   -0.3,  999.0,  999.0,  999.0,    0.2,    0.1,   -0.1,  999.0,   -0.1,    0.2,   -0.4,    0.1,    0.1,    0.3,    0.1,   -0.2,  999.0,   -0.4,    0.1,    0.3,    0.1,  999.0,   -0.1,   -0.1,   -0.3,  999.0,  999.0,    0.3,  999.0,  999.0,  999.0,  999.0,   -0.4,  999.0,  999.0,  999.0,  999.0,  999.0,  999.0
2012/03/24 16:50,  999.0,   -0.1,   -0.2,   -0.1,    0.2,    2.1,    3.1,    2.8,    2.9,    2.2,    8.0,    7.3,    8.3,    9.5,   15.8,   10.8,    9.8,    9.7,   11.0,   11.9,   12.9,   13.9,   19.2,  999.0,    6.3,    8.9,    8.4,  999.0,   -0.4,  999.0,  999.0,  999.0,  999.0,  999.0,  999.0,  999.0,  999.0,  999.0,   -0.3,    0.2,    0.0,   -0.3,  999.0,   -0.3,  999.0,   -0.2,  999.0,  999.0,  999.0,   -0.1,  999.0,  999.0,   -0.1,   -0.1,    0.3,   -0.2,   -0.1,   -0.3,   -0.1,   -0.1,    0.0,    0.0,    0.1,  999.0,    0.2,    0.2,    0.0,  999.0,    0.2,    0.2,   -0.3,  999.0,  999.0,  999.0,  999.0,  999.0,  999.0,  999.0,  999.0,  999.0
2012/03/24 17:00,  999.0,  999.0,    2.7,    0.1,  999.0,  999.0,  999.0,    5.4,    6.4,    4.4,    6.2,    7.3,    7.5,    9.2,    7.5,   10.5,   13.1,   18.7,   19.7,   19.2,   18.4,   18.1,   18.5,   17.8,   20.4,   21.0,  999.0,  999.0,  999.0,  999.0,  999.0,   -0.2,   -0.0,  999.0,  999.0,  999.0,  999.0,  999.0,  999.0,    0.3,    0.2,    0.1,    0.1,  999.0,  999.0,    0.0,  999.0,    0.0,    0.2,   -0.2,   -0.1,   -0.1,  999.0,   -0.2,    0.2,    0.1,    0.2,    0.3,   -0.1,    0.2,    0.8,    0.4,   -0.1,   -0.4,    0.0,    0.5,  999.0,  999.0,  999.0,  999.0,  999.0,   -0.0,  999.0,  999.0,  999.0,  999.0,  999.0,  999.0,  999.0,  999.0
2012/03/24 17:10,  999.0,    1.4,    0.1,    0.7,    0.1,   -0.2,    1.6,   -0.3,    2.1,    1.0,    1.0,    2.7,    7.1,    6.1,    3.9,    6.1,    8.8,    9.4,    9.8,    7.8,  999.0,   16.0,   14.1,   18.6,   22.9,  999.0,  999.0,  999.0,  999.0,  999.0,  999.0,  999.0,  999.0,  999.0,  999.0,  999.0,  999.0,    0.0,  999.0,  999.0,  999.0,    0.3,   -0.7,  999.0,  999.0,    0.2,    0.3,  999.0,  999.0,  999.0,  999.0,   -0.2,  999.0,   -0.2,  999.0,   -0.2,   -0.2,    0.2,    0.0,    0.1,   -0.1,   -0.2,   -0.1,   -0.1,   -0.1,  999.0,    0.1,  999.0,    0.2,   -0.0,    0.1,   -0.1,   -0.1,   -0.1,  999.0,  999.0,  999.0,  999.0,  999.0,  999.0
2012/03/24 17:20,  999.0,  999.0,    3.5,    1.5,    0.9,    0.8,    1.1,    0.1,    3.2,    2.3,    1.5,    2.6,    4.0,    7.4,    6.2,    8.5,    9.3,    9.7,   11.4,   13.8,  999.0,   14.8,   14.6,   15.8,   17.2,  999.0,  999.0,  999.0,  999.0,  999.0,  999.0,  999.0,  999.0,  999.0,  999.0,  999.0,  999.0,  999.0,    0.1,  999.0,    0.0,   -0.1,  999.0,   -0.1,   -0.1,    0.2,    0.4,  999.0,    0.1,    0.2,   -0.0,    0.1,  999.0,   -0.4,   -0.5,   -0.0,    0.3,    0.2,   -0.1,   -0.1,    0.4,   -0.0,   -0.1,   -0.2,    0.1,  999.0,   -0.3,  999.0,  999.0,   -0.0,   -0.4,   -0.5,   -0.1,    0.2,   -0.1,  999.0,  999.0,  999.0,  999.0,  999.0
2012/03/24 17:30,  999.0,  999.0,  999.0,  999.0,    1.7,    2.6,   -0.0,    0.7,    1.4,    3.7,    5.7,    2.8,    8.3,    4.5,    1.8,   11.8,  999.0,  999.0,   15.4,    9.7,   10.6,  999.0,  999.0,  999.0,  999.0,  999.0,  999.0,  999.0,  999.0,  999.0,  999.0,  999.0,   -0.1,  999.0,  999.0,  999.0,  999.0,  999.0,  999.0,   -0.1,  999.0,  999.0,  999.0,    0.0,    0.2,  999.0,  999.0,    0.4,  999.0,  999.0,    0.2,  999.0,    0.0,    0.1,   -0.1,    0.3,    0.1,    0.1,   -0.1,    0.1,   -0.0,    0.1,    0.2,    0.3,  999.0,  999.0,  999.0,  999.0,    0.1,    0.5,  999.0,    0.1,    0.0,  999.0,   -0.0,  999.0,  999.0,  999.0,  999.0,  999.0
2012/03/24 17:40,  999.0,   -0.0,   -0.4,   -1.0,    0.7,    1.0,    2.1,  999.0,    3.0,    4.4,    7.0,    7.8,  999.0,  999.0,  999.0,  999.0,   12.0,  999.0,   14.6,   13.5,   13.2,   14.8,  999.0,  999.0,  999.0,  999.0,  999.0,  999.0,  999.0,  999.0,  999.0,  999.0,  999.0,  999.0,  999.0,    0.1,  999.0,    0.2,    0.3,    0.2,   -0.5,   -0.5,  999.0,   -0.0,   -0.3,   -0.2,   -0.0,    0.0,   -0.2,   -0.0,    0.3,  999.0,  999.0,    0.4,   -0.2,   -0.0,    0.2,   -0.1,   -0.3,   -0.2,    0.1,    0.1,  999.0,  999.0,  999.0,  999.0,  999.0,   -0.2,   -0.2,   -0.4,  999.0,  999.0,   -0.1,   -0.0,    0.0,  999.0,  999.0,  999.0,  999.0,  999.0
2012/03/24 17:50,  999.0,   -0.3,    0.2,    0.4,    1.2,   -0.6,    0.8,    1.2,  999.0,  999.0,    4.0,    3.8,  999.0,  999.0,  999.0,  999.0,  999.0,  999.0,  999.0,  999.0,  999.0,  999.0,  999.0,  999.0,  999.0,  999.0,   -0.2,    0.1,   -0.1,    0.2,    0.1,    0.3,  999.0,    0.2,  999.0,   -0.2,   -0.1,   -0.1,    0.1,  999.0,   -0.4,   -0.4,   -0.1,    0.0,   -0.0,  999.0,    0.1,    0.2,    0.0,  999.0,   -0.0,    0.0,   -0.2,   -0.1,   -0.0,   -0.0,    0.3,   -0.3,    0.2,   -0.2,   -0.0,    0.1,    0.2,  999.0,    0.2,  999.0,    0.1,  999.0,  999.0,  999.0,    0.0,    0.0,   -0.3,    0.1,    0.1,  999.0,  999.0,  999.0,  999.0,  999.0
2012/03/24 18:00,  999.0,  999.0,   -0.1,  999.0,    0.0,    0.1,    1.1,  999.0,  999.0,  999.0,  999.0,  999.0,  999.0,  999.0,    7.3,  999.0,    5.7,    4.7,    2.1,  999.0,    3.5,  999.0,  999.0,  999.0,    0.1,   -0.8,  999.0,    0.1,  999.0,  999.0,   -0.2,    0.1,   -0.1,  999.0,  999.0,    0.1,  999.0,    0.1,  999.0,   -0.8,   -0.6,  999.0,  999.0,   -0.1,    0.3,   -0.0,   -0.1,   -0.0,   -0.1,   -0.0,    0.3,  999.0,    0.1,    0.0,    0.1,    0.4,    0.3,    0.1,   -0.1,    0.2,    0.1,    0.0,   -0.1,   -0.3,  999.0,    0.5,  999.0,    0.2,    0.5,    0.2,   -0.1,   -0.3,   -0.5,  999.0,   -0.3,  999.0,  999.0,  999.0,  999.0,  999.0
2012/03/24 18:10,  999.0,    0.3,   -0.0,    0.9,    1.0,    0.4,    0.6,   -0.0,    0.9,  999.0,    4.0,    2.9,    1.9,    0.7,  999.0,    1.9,  999.0,  999.0,    9.0,  999.0,    8.4,   12.0,  999.0,   13.4,  999.0,  999.0,  999.0,  999.0,  999.0,  999.0,  999.0,  999.0,  999.0,  999.0,  999.0,  999.0,  999.0,  999.0,  999.0,  999.0,  999.0,  999.0,  999.0,  999.0,    0.5,  999.0,  999.0,  999.0,  999.0,  999.0,  999.0,  999.0,  999.0,  999.0,  999.0,  999.0,  999.0,  999.0,    0.0,    0.1,  999.0,    0.2,    0.1,  999.0,  999.0,  999.0,   -0.6,  999.0,  999.0,  999.0,  999.0,  999.0,  999.0,  999.0,  999.0,  999.0,  999.0,  999.0,  999.0,  999.0
2012/03/24 18:20,  999.0,    0.8,   -0.1,    0.5,    1.1,    0.8,    1.2,    0.8,    1.0,    1.9,    2.3,    1.4,    0.7,    1.2,   -0.2,   -0.9,  999.0,   -0.6,    0.3,  999.0,    0.0,  999.0,   -0.2,   -0.1,    0.3,    0.1,   -0.1,  999.0,   -0.1,   -0.0,   -0.2,   -0.2,  999.0,   -0.3,   -0.2,    0.4,    0.0,  999.0,  999.0,   -0.0,   -0.7,  999.0,   -0.0,    0.0,    0.3,   -0.0,   -0.1,   -0.1,   -0.3,   -0.1,    0.2,  999.0,   -0.0,    0.2,    0.0,   -0.0,   -0.1,    0.4,   -0.3,  999.0,   -0.0,  999.0,  999.0,   -0.2,   -0.2,    0.2,    0.3,  999.0,   -0.2,  999.0,    0.1,    0.2,  999.0,  999.0,    0.2,  999.0,  999.0,  999.0,  999.0,  999.0
2012/03/24 18:30,  999.0,   -0.3,  999.0,    0.8,    0.3,    0.9,  999.0,  999.0,    0.8,  999.0,  999.0,  999.0,    5.3,    5.2,  999.0,  999.0,   -0.1,   -2.3,    0.2,   -0.1,   -0.3,   -0.3,   -0.3,   -0.4,   -0.2,   -0.2,   -0.1,    0.0,   -0.2,   -0.3,   -0.2,   -0.1,   -0.1,    0.1,   -0.3,  999.0,   -0.3,  999.0,    0.3,    0.2,   -0.3,   -0.4,   -0.2,   -0.2,    0.1,   -0.1,    0.2,   -0.0,    0.0,   -0.1,    0.1,  999.0,   -0.3,  999.0,  999.0,    0.3,    0.2,   -0.3,    0.0,   -0.2,   -0.5,   -0.0,  999.0,  999.0,    0.2,  999.0,   -0.3,   -0.0,   -0.0,  999.0,   -0.1,   -0.3,  999.0,  999.0,   -0.2,  999.0,  999.0,  999.0,  999.0,  999.0
2012/03/24 18:40,  999.0,    0.4,    0.2,    0.3,    0.5,    0.2,    0.8,    0.7,    0.1,    0.7,    1.8,    1.3,    1.4,    2.1,    2.0,    2.2,   -0.9,   -0.4,   -0.2,   -0.2,   -0.3,   -0.7,   -0.4,   -0.1,    0.1,   -0.2,    0.1,    0.1,   -0.1,    0.1,    0.0,    0.2,    0.1,   -0.6,  999.0,    0.1,  999.0,  999.0,    0.3,   -0.1,   -0.4,   -0.0,   -0.2,   -0.1,    0.4,    0.1,    0.2,    0.0,   -0.1,    0.2,  999.0,  999.0,   -0.1,    0.2,   -0.4,    0.2,   -0.1,  999.0,  999.0,   -0.1,   -0.4,    0.3,    0.0,   -0.1,   -0.0,  999.0,   -0.3,   -0.1,  999.0,  999.0,    0.1,   -0.3,  999.0,  999.0,  999.0,  999.0,  999.0,  999.0,  999.0,  999.0
2012/03/24 18:50,  999.0,   -0.1,    0.1,    0.4,    0.3,    0.1,    0.8,    0.4,  999.0,  999.0,   -0.1,    0.2,    0.1,    0.2,   -0.0,   -0.3,   -0.5,   -0.2,   -0.2,   -0.3,   -0.4,   -0.3,   -0.0,    0.1,    0.0,   -0.1,    0.1,   -0.2,   -0.2,    0.1,   -0.1,    0.4,   -0.1,    0.1,   -0.2,    0.2,    0.2,   -0.0,    0.2,   -0.2,   -0.3,   -0.0,    0.2,    0.1,    0.1,   -0.0,   -0.2,   -0.2,    0.1,    0.1,    0.1,    0.1,    0.0,   -0.2,   -0.0,   -0.1,    0.1,   -0.1,    0.1,    0.2,   -0.1,   -0.2,    0.1,    0.3,   -0.4,   -0.0,   -0.1,    0.2,   -0.1,  999.0,    0.3,    0.1,    0.2,   -0.2,  999.0,  999.0,  999.0,  999.0,  999.0,  999.0
2012/03/24 19:00,  999.0,   -0.1,    0.3,   -0.4,    0.2,    0.4,    0.3,    0.4,    0.1,    0.4,    0.3,    0.1,    0.1,   -0.2,   -0.4,   -0.4,   -0.4,   -0.6,   -0.5,   -0.1,   -0.1,   -0.1,    0.0,    0.0,   -0.0,   -0.0,    0.1,    0.1,   -0.2,   -0.1,    0.1,    0.2,    0.0,   -0.2,   -0.1,    0.1,  999.0,    0.1,    0.0,   -0.0,   -0.2,   -0.2,   -0.0,    0.1,   -0.0,    0.0,   -0.2,    0.0,   -0.1,   -0.2,   -0.1,    0.0,   -0.1,    0.1,    0.0,   -0.1,   -0.2,   -0.1,    0.0,   -0.0,   -0.0,    0.0,  999.0,  999.0,   -0.2,  999.0,  999.0,  999.0,    0.0,  999.0,  999.0,    0.1,  999.0,    0.0,  999.0,  999.0,  999.0,  999.0,  999.0,  999.0
2012/03/24 19:10,  999.0,   -0.0,    0.3,    0.1,    0.1,    0.3,    0.2,    0.2,    0.4,    0.1,    0.1,   -0.2,   -0.3,   -0.4,   -0.6,   -0.6,  999.0,   -0.3,   -0.1,   -0.0,   -0.1,   -0.0,   -0.1,    0.1,    0.1,   -0.0,    0.2,   -0.0,   -0.0,   -0.0,   -0.1,   -0.1,    0.1,   -0.1,   -0.4,    0.1,    0.1,   -0.0,    0.2,   -0.3,   -0.3,   -0.5,   -0.2,   -0.2,   -0.2,   -0.2,    0.2,    0.2,    0.0,   -0.1,   -0.1,   -0.2,    0.2,    0.1,    0.2,   -0.0,    0.2,   -0.1,   -0.1,   -0.0,    0.1,   -0.0,   -0.4,   -0.4,    0.1,    0.1,    0.2,    0.1,    0.1,  999.0,    0.3,  999.0,   -0.1,    0.3,  999.0,  999.0,  999.0,  999.0,  999.0,  999.0
2012/03/24 19:20,  999.0,  999.0,  999.0,    0.1,    0.0,   -0.0,  999.0,    0.0,   -0.3,    0.1,   -0.1,   -0.0,   -0.0,    0.0,    0.1,    0.1,   -0.1,   -0.2,   -0.2,   -0.2,   -0.2,   -0.1,    0.1,   -0.0,    0.0,    0.0,   -0.0,   -0.0,   -0.1,   -0.1,   -0.0,   -0.1,   -0.1,   -0.0,    0.0,    0.2,   -0.1,    0.3,    0.0,   -0.1,   -0.2,   -0.1,    0.1,    0.1,    0.1,   -0.1,   -0.0,   -0.2,   -0.0,    0.0,    0.1,   -0.1,    0.0,    0.0,    0.0,    0.0,    0.0,    0.0,    0.0,    0.1,   -0.0,    0.1,   -0.1,   -0.0,   -0.1,   -0.1,   -0.0,    0.0,  999.0,   -0.1,   -0.0,  999.0,    0.6,    0.3,  999.0,  999.0,  999.0,  999.0,  999.0,  999.0
2012/03/24 19:30,  999.0,  999.0,  999.0,    0.1,    0.1,   -0.0,    0.1,    0.2,    0.0,    0.2,    0.2,    0.1,    0.1,   -0.0,   -0.0,   -0.1,   -0.0,    0.1,    0.1,    0.1,   -0.1,   -0.1,    0.1,   -0.0,    0.0,    0.0,    0.1,    0.0,   -0.0,    0.2,    0.0,   -0.1,    0.0,   -0.0,   -0.0,   -0.1,   -0.0,   -0.1,   -0.0,    0.1,   -0.1,   -0.1,    0.0,    0.0,    0.1,    0.0,    0.1,    0.1,    0.0,    0.1,   -0.0,    0.0,   -0.0,    0.1,    0.1,    0.0,    0.2,   -0.1,    0.0,   -0.1,   -0.0,    0.2,    0.1,   -0.0,    0.0,   -0.1,   -0.1,   -0.1,    0.1,  999.0,  999.0,   -0.3,    0.1,  999.0,  999.0,  999.0,  999.0,  999.0,  999.0,  999.0
2012/03/24 19:40,  999.0,  999.0,   -0.0,    0.4,    0.3,    0.1,    0.4,    0.6,    0.3,    0.1,    0.3,    0.2,    0.3,    0.2,    0.0,   -0.0,  999.0,  999.0,   -0.1,  999.0,  999.0,   -0.1,    0.0,    0.2,    0.1,    0.0,    0.0,   -0.1,   -0.0,    0.1,    0.1,    0.1,   -0.0,   -0.2,    0.0,    0.2,  999.0,    0.0,    0.1,   -0.3,   -0.2,    0.0,    0.2,   -0.0,    0.0,   -0.0,    0.1,    0.0,    0.0,    0.1,   -0.0,    0.1,    0.2,   -0.1,    0.1,   -0.1,    0.1,    0.0,   -0.0,    0.3,   -0.1,    0.0,   -0.2,   -0.2,    0.0,   -0.0,    0.2,  999.0,   -0.4,   -0.4,  999.0,   -0.1,   -0.1,   -0.3,  999.0,  999.0,  999.0,  999.0,  999.0,  999.0
2012/03/24 19:50,  999.0,    0.0,   -0.1,   -0.1,   -0.0,    0.3,    0.1,    0.3,    0.1,    0.2,    0.4,    0.2,    0.2,    0.2,    0.5,    0.2,    0.3,    0.1,   -0.1,    0.0,   -0.0,    0.0,   -0.1,   -0.0,   -0.1,    0.2,    0.2,    0.0,    0.1,   -0.1,   -0.0,   -0.1,    0.0,    0.0,   -0.0,    0.1,    0.2,    0.1,    0.1,   -0.1,   -0.3,    0.0,   -0.1,    0.2,   -0.1,    0.1,   -0.1,   -0.0,    0.1,   -0.0,   -0.2,   -0.1,   -0.0,    0.0,   -0.1,   -0.2,    0.0,    0.1,   -0.1,    0.0,   -0.1,   -0.2,    0.0,   -0.1,   -0.0,    0.1,    0.1,   -0.2,   -0.2,   -0.0,  999.0,  999.0,   -0.0,   -0.2,  999.0,  999.0,  999.0,  999.0,  999.0,  999.0
2012/03/24 20:00,  999.0,    0.2,   -1.2,   -0.5,    0.5,   -0.0,    0.5,    1.0,    0.8,    0.6,    0.7,    0.6,    0.7,    0.6,    0.6,    0.9,    0.7,    0.3,    0.2,    0.0,    0.1,    0.1,    0.1,    0.0,   -0.0,    0.0,   -0.1,    0.2,    0.1,   -0.1,   -0.1,    0.1,   -0.0,   -0.1,   -0.1,   -0.0,    0.1,   -0.0,    0.2,   -0.0,   -0.2,   -0.2,   -0.0,   -0.1,   -0.1,    0.0,    0.0,    0.2,   -0.0,    0.1,   -0.1,   -0.1,   -0.2,   -0.2,   -0.2,   -0.0,    0.0,   -0.1,   -0.0,    0.2,    0.2,    0.1,    0.0,    0.1,   -0.0,   -0.3,   -0.1,   -0.1,    0.2,    0.2,  999.0,    0.2,  999.0,  999.0,  999.0,  999.0,  999.0,  999.0,  999.0,  999.0
2012/03/24 20:10,  999.0,   -0.5,   -0.4,   -0.2,    0.5,    0.2,    1.3,    1.1,    0.8,    0.8,    1.4,    1.9,    1.5,    1.4,    1.1,    0.7,    0.5,    0.5,    0.2,   -0.0,   -0.0,   -0.2,   -0.0,   -0.2,   -0.2,   -0.1,   -0.0,    0.1,    0.1,    0.0,   -0.0,    0.1,   -0.0,    0.2,    0.0,    0.1,  999.0,    0.0,    0.0,   -0.1,   -0.2,   -0.0,    0.3,   -0.0,    0.1,   -0.1,   -0.1,   -0.1,    0.0,   -0.0,   -0.1,    0.1,    0.0,   -0.1,    0.1,    0.0,    0.1,    0.1,   -0.0,   -0.1,   -0.1,   -0.1,    0.0,    0.1,   -0.0,   -0.3,    0.1,    0.5,  999.0,    0.3,  999.0,  999.0,  999.0,  999.0,  999.0,  999.0,  999.0,  999.0,  999.0,  999.0
2012/03/24 20:20,  999.0,    0.2,    0.5,   -0.2,    0.4,    0.5,    1.1,    1.4,    2.2,    2.5,    2.4,    2.4,    1.7,    2.1,    2.1,    2.5,    1.4,    0.9,    0.5,    0.2,    0.1,    0.1,    0.0,    0.0,   -0.2,    0.0,   -0.0,   -0.0,   -0.1,   -0.1,    0.1,    0.0,    0.1,    0.1,   -0.1,    0.0,    0.3,   -0.0,   -0.2,    0.1,   -0.1,   -0.3,   -0.2,   -0.1,    0.0,    0.2,   -0.0,    0.1,    0.0,    0.0,   -0.0,    0.0,    0.1,   -0.1,   -0.2,    0.1,   -0.1,   -0.2,    0.1,   -0.1,    0.1,    0.2,    0.3,    0.1,   -0.1,   -0.4,    0.0,    0.1,  999.0,  999.0,  999.0,  999.0,  999.0,  999.0,  999.0,  999.0,  999.0,  999.0,  999.0,  999.0
2012/03/24 20:30,  999.0,   -0.7,   -0.0,    0.6,    0.9,    0.8,    0.2,    0.4,    4.3,    7.1,    6.9,    7.8,    7.8,    7.5,    5.9,  999.0,  999.0,    2.0,    2.1,    0.7,    0.0,   -0.0,   -0.1,   -0.2,   -0.0,    0.1,    0.1,    0.2,   -0.0,   -0.1,    0.2,    0.0,    0.1,   -0.1,    0.1,  999.0,    0.2,    0.2,    0.1,   -0.2,   -0.4,   -0.1,   -0.1,   -0.0,    0.2,   -0.1,   -0.1,    0.1,    0.0,    0.1,   -0.0,    0.1,    0.1,   -0.2,   -0.1,    0.1,    0.1,   -0.2,    0.1,    0.0,    0.0,   -0.2,   -0.1,    0.1,   -0.1,   -0.0,  999.0,   -0.6,   -0.6,   -0.1,   -0.2,    0.0,  999.0,  999.0,  999.0,  999.0,  999.0,  999.0,  999.0,  999.0
2012/03/24 20:40,  999.0,   -0.2,   -1.1,   -0.9,   -0.7,    0.5,    0.9,    2.2,    3.6,    5.1,    6.0,    7.4,    5.8,    5.0,    7.8,  999.0,    3.4,    1.5,    1.7,    0.5,    0.1,    0.3,    0.1,    0.0,    0.1,    0.0,   -0.1,    0.1,    0.1,   -0.0,    0.1,    0.0,   -0.2,   -0.1,    0.0,   -0.0,   -0.1,  999.0,    0.2,    0.2,   -0.2,   -0.4,   -0.4,   -0.2,   -0.3,   -0.3,   -0.0,   -0.2,   -0.2,    0.1,   -0.1,    0.0,   -0.0,   -0.2,    0.1,   -0.1,    0.2,   -0.2,    0.0,    0.1,    0.0,    0.3,    0.2,   -0.0,    0.2,    0.1,   -0.0,   -0.0,   -0.0,    0.1,  999.0,  999.0,  999.0,  999.0,  999.0,  999.0,  999.0,  999.0,  999.0,  999.0
2012/03/24 20:50,  999.0,    0.5,    0.5,    1.0,    1.7,    1.1,    0.8,    1.4,    2.2,    2.3,    2.6,    2.9,    3.1,    2.8,    1.2,    0.9,    0.5,    0.4,    0.1,   -0.1,   -0.0,   -0.1,   -0.1,   -0.2,   -0.0,    0.0,   -0.1,   -0.2,   -0.1,    0.1,   -0.2,   -0.1,    0.1,   -0.3,   -0.3,    0.0,    0.0,   -0.2,   -0.2,   -0.2,   -0.1,   -0.1,   -0.0,   -0.0,    0.2,    0.2,    0.2,    0.1,    0.2,   -0.1,    0.2,    0.1,   -0.0,    0.2,    0.0,   -0.0,    0.1,    0.3,   -0.1,    0.2,    0.1,    0.1,    0.3,   -0.1,    0.2,   -0.1,   -0.1,   -0.4,  999.0,   -0.4,    0.1,  999.0,  999.0,  999.0,  999.0,  999.0,  999.0,  999.0,  999.0,  999.0
2012/03/24 21:00,  999.0,    0.2,    0.0,    0.9,    0.9,    0.7,    0.6,    0.7,    0.8,    0.7,    1.3,    2.6,    1.9,    1.1,    0.8,    0.5,    0.5,    0.1,    0.0,    0.0,    0.1,   -0.0,   -0.1,   -0.1,    0.0,    0.1,    0.1,    0.1,   -0.1,   -0.1,    0.1,   -0.2,   -0.2,   -0.1,   -0.0,    0.1,   -0.3,   -0.1,   -0.2,   -0.0,   -0.3,   -0.1,    0.0,    0.0,    0.1,   -0.1,   -0.1,    0.1,    0.1,   -0.1,    0.0,   -0.2,    0.1,   -0.1,   -0.0,   -0.1,    0.0,   -0.0,   -0.1,    0.2,    0.1,    0.3,   -0.2,    0.0,    0.1,   -0.2,   -0.1,   -0.0,  999.0,  999.0,  999.0,  999.0,  999.0,  999.0,  999.0,  999.0,  999.0,  999.0,  999.0,  999.0
2012/03/24 21:10,  999.0,    0.3,    0.1,    0.3,    0.2,   -0.0,    0.1,    0.4,    0.1,    0.2,    0.3,    0.5,    0.3,    0.0,    0.0,   -0.0,    0.1,   -0.1,   -0.0,   -0.0,   -0.0,    0.0,    0.0,   -0.1,   -0.1,    0.0,   -0.1,    0.2,    0.1,   -0.0,    0.1,   -0.1,   -0.1,   -0.2,    0.1,    0.1,   -0.1,   -0.2,    0.2,    0.2,   -0.4,   -0.1,   -0.1,    0.2,    0.0,    0.0,   -0.1,   -0.0,    0.0,    0.1,   -0.1,    0.1,    0.2,    0.2,    0.0,   -0.1,    0.1,    0.1,    0.1,    0.1,   -0.1,    0.3,    0.2,   -0.1,   -0.0,    0.0,   -0.1,   -0.1,  999.0,  999.0,  999.0,  999.0,  999.0,  999.0,  999.0,  999.0,  999.0,  999.0,  999.0,  999.0
2012/03/24 21:20,  999.0,    0.0,    0.1,    0.0,    0.1,    0.2,    0.4,    0.3,  999.0,    0.2,    0.8,    0.7,    0.1,    0.1,   -0.0,    0.0,    0.0,   -0.0,   -0.0,    0.1,    0.1,   -0.0,    0.2,   -0.1,    0.0,    0.1,   -0.1,   -0.1,    0.1,    0.0,   -0.1,   -0.1,    0.0,   -0.2,   -0.0,   -0.2,    0.0,   -0.0,    0.2,    0.1,   -0.1,   -0.1,   -0.1,   -0.0,    0.1,    0.0,   -0.1,   -0.0,   -0.1,    0.0,    0.1,   -0.0,    0.1,    0.0,   -0.0,   -0.1,    0.0,    0.1,   -0.1,   -0.2,   -0.1,    0.2,    0.0,    0.0,   -0.0,    0.0,    0.1,    0.1,    0.1,  999.0,  999.0,  999.0,    0.1,  999.0,  999.0,  999.0,  999.0,  999.0,  999.0,  999.0
2012/03/24 21:30,  999.0,    0.1,    0.2,    0.2,    0.2,    0.5,    0.6,    0.7,    0.3,    0.1,    0.2,    0.4,    0.2,    0.2,    0.2,    0.2,    0.0,    0.0,   -0.0,    0.0,   -0.0,    0.1,    0.2,   -0.1,    0.1,   -0.2,   -0.2,   -0.1,   -0.1,    0.1,    0.0,   -0.1,   -0.0,   -0.0,    0.0,    0.0,    0.1,    0.0,    0.0,   -0.1,   -0.1,   -0.0,   -0.0,   -0.0,    0.0,    0.0,   -0.1,    0.1,    0.0,    0.1,   -0.0,   -0.1,   -0.1,    0.1,    0.3,    0.1,   -0.1,    0.0,   -0.1,   -0.0,   -0.0,    0.0,    0.2,   -0.1,   -0.1,   -0.0,   -0.0,    0.1,    0.1,    0.1,  999.0,  999.0,    0.2,  999.0,  999.0,  999.0,  999.0,  999.0,  999.0,  999.0
2012/03/24 21:40,  999.0,  999.0,  999.0,   -0.1,    0.1,    0.1,    0.0,    0.0,   -0.0,    0.2,    0.1,    0.0,    0.1,    0.1,  999.0,    0.1,    0.3,    0.0,   -0.1,   -0.0,   -0.0,   -0.1,   -0.1,   -0.1,   -0.0,   -0.0,   -0.1,    0.0,   -0.0,    0.1,   -0.0,    0.1,   -0.1,    0.1,    0.1,   -0.1,    0.1,   -0.1,   -0.1,    0.1,   -0.1,   -0.2,    0.0,   -0.0,   -0.0,   -0.0,    0.0,    0.1,    0.0,    0.1,    0.1,    0.1,   -0.1,   -0.0,   -0.2,    0.1,    0.0,   -0.0,   -0.0,   -0.0,    0.1,    0.2,    0.1,   -0.0,   -0.1,   -0.0,   -0.1,   -0.0,    0.1,  999.0,  999.0,   -0.3,   -0.2,   -0.1,  999.0,  999.0,  999.0,  999.0,  999.0,  999.0
2012/03/24 21:50,  999.0,  999.0,   -0.1,   -0.1,    0.2,    0.1,    0.3,    0.5,    0.5,    0.5,    0.8,    0.6,    0.7,    0.3,    0.3,    0.3,    0.3,    0.2,    0.2,    0.1,  999.0,    0.2,    0.1,   -0.0,    0.1,    0.0,   -0.0,   -0.0,   -0.2,   -0.1,    0.0,   -0.0,    0.0,   -0.0,    0.1,    0.0,   -0.1,    0.0,   -0.0,   -0.1,   -0.2,   -0.1,   -0.1,    0.0,   -0.0,    0.1,    0.1,    0.0,   -0.1,   -0.0,   -0.2,    0.1,    0.2,   -0.0,   -0.0,   -0.1,   -0.1,    0.3,    0.4,    0.0,    0.1,  999.0,    0.3,   -0.1,   -0.3,    0.3,   -0.0,   -0.4,   -0.3,   -0.6,  999.0,  999.0,  999.0,    0.0,  999.0,  999.0,  999.0,  999.0,  999.0,  999.0
2012/03/24 22:00,  999.0,    0.4,    0.7,   -0.3,    0.2,    0.8,    0.5,    0.5,    0.4,    0.5,    0.7,    0.7,    0.2,    0.1,    0.3,    0.1,    0.2,    0.2,    0.0,    0.1,   -0.0,    0.1,   -0.1,   -0.1,   -0.0,    0.0,   -0.1,   -0.0,   -0.1,   -0.1,    0.0,    0.0,    0.1,   -0.0,   -0.1,   -0.1,   -0.2,   -0.0,   -0.2,   -0.0,   -0.3,   -0.2,   -0.2,   -0.1,   -0.0,   -0.0,   -0.1,   -0.0,    0.0,   -0.1,   -0.0,    0.2,    0.1,    0.1,    0.1,    0.1,    0.0,   -0.0,    0.1,   -0.2,    0.0,   -0.1,   -0.1,    0.4,    0.3,  999.0,   -0.3,   -0.0,  999.0,  999.0,  999.0,    0.3,   -0.3,    0.0,  999.0,  999.0,  999.0,  999.0,  999.0,  999.0
2012/03/24 22:10,  999.0,    1.1,    1.3,    0.5,    0.5,    0.1,    0.3,    0.4,    0.3,    0.4,    0.8,    0.5,    0.2,    0.3,    0.1,    0.2,   -0.0,   -0.0,  999.0,    0.0,  999.0,   -0.0,   -0.1,   -0.2,   -0.0,    0.0,    0.0,   -0.1,   -0.0,    0.1,   -0.3,   -0.1,   -0.1,    0.1,    0.2,    0.0,   -0.1,    0.0,   -0.1,    0.0,   -0.2,   -0.4,   -0.2,   -0.2,   -0.0,    0.2,   -0.1,    0.0,    0.0,    0.1,    0.0,   -0.0,    0.1,    0.1,    0.0,   -0.2,   -0.1,    0.2,    0.0,   -0.1,    0.2,    0.4,  999.0,  999.0,    0.3,  999.0,   -0.2,   -0.0,    0.1,  999.0,  999.0,  999.0,   -0.2,   -0.1,  999.0,  999.0,  999.0,  999.0,  999.0,  999.0
2012/03/24 22:20,  999.0,  999.0,    0.1,    0.4,    0.5,    0.3,  999.0,    0.3,    0.1,    0.5,    0.9,    0.5,   -0.1,   -0.1,   -0.1,   -0.1,    0.0,   -0.0,   -0.0,  999.0,  999.0,    0.1,    0.2,    0.2,    0.0,    0.1,   -0.0,   -0.1,   -0.1,   -0.1,    0.1,   -0.0,   -0.1,    0.1,    0.0,   -0.0,    0.1,    0.1,    0.0,    0.2,   -0.2,   -0.3,    0.1,   -0.0,   -0.0,   -0.0,   -0.2,   -0.1,   -0.1,    0.1,   -0.2,    0.1,   -0.1,    0.1,   -0.0,   -0.3,    0.0,  999.0,    0.2,   -0.6,   -0.3,    0.3,   -0.1,    0.0,    0.2,  999.0,    0.4,   -0.0,    0.0,  999.0,  999.0,   -0.2,   -0.5,   -0.3,   -0.2,  999.0,  999.0,  999.0,  999.0,  999.0
2012/03/24 22:30,  999.0,  999.0,   -0.1,   -0.0,    0.0,    0.1,   -0.0,    0.1,    0.2,   -0.1,   -0.1,   -0.2,  999.0,   -0.1,   -0.0,    0.0,    0.1,    0.0,   -0.0,    0.0,   -0.0,   -0.1,   -0.1,   -0.1,   -0.0,    0.1,   -0.1,   -0.1,   -0.0,   -0.1,   -0.0,   -0.1,   -0.0,    0.0,   -0.3,   -0.1,    0.1,    0.0,   -0.0,   -0.0,   -0.2,   -0.2,   -0.1,    0.0,    0.0,    0.0,    0.1,   -0.1,    0.0,    0.1,    0.1,   -0.0,   -0.0,    0.1,    0.1,    0.1,   -0.0,   -0.0,   -0.0,    0.0,    0.3,   -0.1,   -0.1,    0.1,   -0.1,   -0.1,   -0.0,   -0.0,   -0.5,   -0.0,   -0.2,   -0.2,  999.0,  999.0,  999.0,  999.0,  999.0,  999.0,  999.0,  999.0
2012/03/24 22:40,  999.0,  999.0,   -0.2,    0.0,    0.1,    0.1,    0.0,    0.0,   -0.1,    0.0,    0.0,   -0.0,    0.1,   -0.0,   -0.0,   -0.0,    0.1,    0.1,   -0.0,   -0.0,    0.0,    0.0,    0.0,    0.0,   -0.0,    0.0,    0.1,   -0.0,   -0.0,   -0.0,   -0.1,    0.1,   -0.1,   -0.0,    0.0,   -0.1,   -0.2,   -0.1,    0.0,   -0.1,   -0.1,   -0.0,   -0.0,    0.1,    0.1,    0.2,    0.0,    0.0,   -0.0,   -0.0,    0.1,    0.0,   -0.1,    0.0,    0.0,    0.0,    0.0,   -0.1,    0.1,    0.0,   -0.0,   -0.1,    0.0,    0.1,    0.2,   -0.1,   -0.1,   -0.1,   -0.1,   -0.0,  999.0,  999.0,    0.1,  999.0,  999.0,  999.0,  999.0,  999.0,  999.0,  999.0
2012/03/24 22:50,  999.0,  999.0,    0.1,    0.1,   -0.0,    0.1,    0.1,   -0.1,   -0.1,   -0.1,   -0.0,    0.1,    0.1,   -0.1,    0.0,    0.1,    0.1,    0.1,    0.1,   -0.0,    0.0,    0.0,    0.0,   -0.0,    0.0,   -0.0,    0.0,   -0.0,   -0.1,   -0.0,    0.0,   -0.1,    0.0,    0.1,    0.0,    0.1,   -0.0,   -0.1,    0.1,   -0.0,   -0.0,    0.0,   -0.1,    0.1,    0.2,   -0.0,   -0.0,   -0.0,   -0.0,   -0.0,   -0.1,    0.0,   -0.1,   -0.1,    0.2,    0.1,   -0.1,   -0.1,    0.0,    0.1,    0.1,   -0.1,   -0.2,   -0.1,    0.2,   -0.2,   -0.1,    0.1,   -0.0,   -0.0,  999.0,    0.2,    0.2,   -0.2,  999.0,  999.0,  999.0,  999.0,  999.0,  999.0
2012/03/24 23:00,  999.0,  999.0,   -0.2,   -0.0,   -0.0,    0.1,    0.0,    0.0,   -0.0,   -0.0,   -0.0,    0.0,   -0.0,   -0.0,    0.0,    0.0,  999.0,    0.0,   -0.0,    0.0,    0.0,    0.2,    0.1,    0.0,   -0.1,   -0.1,   -0.1,   -0.0,   -0.1,    0.1,   -0.0,   -0.0,   -0.1,    0.0,   -0.0,   -0.1,    0.1,    0.0,   -0.0,   -0.0,   -0.2,   -0.1,    0.0,   -0.1,   -0.0,   -0.1,   -0.0,   -0.1,   -0.0,    0.1,   -0.0,   -0.2,   -0.0,   -0.0,   -0.1,   -0.1,    0.0,   -0.0,    0.2,   -0.0,   -0.1,    0.0,   -0.4,   -0.1,    0.1,    0.2,    0.1,   -0.1,   -0.5,  999.0,  999.0,  999.0,  999.0,    0.1,  999.0,  999.0,  999.0,  999.0,  999.0,  999.0
2012/03/24 23:10,  999.0,  999.0,   -0.0,    0.0,    0.0,   -0.0,   -0.1,   -0.0,   -0.1,   -0.0,   -0.0,   -0.1,    0.0,    0.1,    0.0,   -0.0,    0.0,    0.0,    0.1,    0.0,   -0.1,   -0.0,    0.0,   -0.0,    0.1,    0.0,    0.1,    0.1,    0.1,   -0.1,   -0.1,   -0.1,   -0.1,   -0.1,   -0.1,    0.0,   -0.0,   -0.0,   -0.0,    0.0,   -0.1,   -0.1,    0.0,   -0.0,   -0.0,    0.0,    0.0,   -0.0,   -0.1,   -0.0,   -0.1,   -0.0,    0.0,   -0.0,    0.1,    0.2,   -0.1,    0.1,    0.0,   -0.0,    0.1,   -0.1,   -0.0,   -0.1,   -0.1,   -0.3,   -0.1,   -0.1,    0.0,   -0.1,    0.0,  999.0,  999.0,  999.0,  999.0,  999.0,  999.0,  999.0,  999.0,  999.0
2012/03/24 23:20,  999.0,  999.0,  999.0,   -0.0,    0.0,   -0.1,   -0.0,   -0.0,   -0.0,    0.0,    0.0,   -0.1,   -0.0,    0.0,    0.1,    0.0,   -0.0,   -0.1,   -0.0,   -0.2,   -0.0,   -0.0,    0.0,   -0.1,    0.1,    0.1,    0.0,    0.2,   -0.0,    0.0,   -0.0,    0.0,   -0.1,   -0.1,   -0.0,   -0.1,   -0.1,    0.1,    0.0,    0.1,   -0.1,   -0.2,    0.1,   -0.1,    0.1,   -0.1,   -0.0,   -0.0,   -0.1,    0.0,    0.1,    0.0,   -0.1,    0.1,    0.0,    0.1,    0.1,    0.0,    0.0,    0.0,    0.0,    0.0,   -0.1,   -0.0,    0.0,    0.1,   -0.2,   -0.2,    0.1,  999.0,  999.0,  999.0,  999.0,  999.0,  999.0,  999.0,  999.0,  999.0,  999.0,  999.0
2012/03/24 23:30,  999.0,  999.0,    0.0,    0.0,   -0.0,   -0.1,    0.1,    0.0,   -0.0,   -0.0,    0.1,    0.1,    0.0,   -0.1,   -0.0,    0.1,    0.0,    0.0,   -0.0,    0.0,   -0.0,   -0.1,   -0.1,   -0.1,    0.0,   -0.0,    0.0,    0.0,    0.0,    0.0,    0.0,   -0.0,   -0.1,   -0.1,   -0.0,    0.1,    0.1,   -0.0,    0.1,    0.1,   -0.2,   -0.2,   -0.0,   -0.0,    0.1,   -0.1,   -0.1,   -0.0,    0.0,    0.0,    0.3,    0.2,    0.1,    0.0,    0.2,   -0.1,   -0.1,   -0.0,    0.0,    0.1,   -0.1,    0.1,    0.0,   -0.1,    0.2,   -0.2,   -0.1,   -0.3,   -0.1,  999.0,  999.0,  999.0,  999.0,  999.0,  999.0,  999.0,  999.0,  999.0,  999.0,  999.0
2012/03/24 23:40,  999.0,  999.0,   -0.0,   -0.0,    0.0,   -0.0,   -0.1,   -0.0,   -0.0,    0.0,    0.0,    0.0,   -0.0,   -0.1,   -0.1,    0.1,    0.0,   -0.0,    0.0,   -0.1,    0.0,    0.1,   -0.0,   -0.1,    0.1,    0.1,   -0.0,   -0.0,    0.1,   -0.1,    0.1,   -0.0,   -0.1,   -0.1,   -0.1,    0.1,   -0.1,   -0.1,    0.1,    0.1,   -0.1,   -0.2,   -0.1,   -0.0,   -0.0,   -0.1,   -0.1,    0.0,    0.0,   -0.1,    0.1,    0.2,    0.1,    0.1,   -0.1,    0.1,   -0.1,   -0.1,   -0.0,    0.0,    0.1,   -0.1,   -0.1,    0.1,    0.1,   -0.2,   -0.0,    0.0,   -0.2,  999.0,  999.0,  999.0,  999.0,  999.0,  999.0,  999.0,  999.0,  999.0,  999.0,  999.0
2012/03/24 23:50,  999.0,  999.0,    0.0,    0.1,   -0.0,   -0.0,  999.0,    0.1,  999.0,   -0.0,   -0.0,    0.1,    0.0,   -0.1,   -0.0,    0.0,    0.1,    0.0,    0.1,    0.0,   -0.1,   -0.0,    0.1,    0.2,   -0.0,   -0.0,   -0.1,   -0.1,    0.1,   -0.0,   -0.0,   -0.0,   -0.0,   -0.1,   -0.1,   -0.1,   -0.1,    0.0,   -0.1,    0.0,   -0.2,   -0.1,   -0.0,   -0.2,    0.1,    0.0,    0.1,    0.0,    0.0,    0.1,    0.1,    0.1,    0.1,   -0.1,    0.0,    0.0,   -0.0,   -0.0,   -0.2,    0.0,   -0.1,   -0.0,   -0.1,   -0.0,    0.1,   -0.2,   -0.1,   -0.2,  999.0,  999.0,  999.0,  999.0,  999.0,  999.0,  999.0,  999.0,  999.0,  999.0,  999.0,  999.0
